GTI8851 PANC-RODN

Flight info

Callsign GTI8851
Flight time 9h 20m
Altitude 32000
Route TED J501 BET DCT NANZA R220 IXE Y88 TENRU DCT ANJYO DCT CBE V52 AYANO Y12 KEC Z262 ALUYO Z26 TONAR Y525 ONC DCT NHC
Aircraft B763/H-SDE3FGHIM3RWXY/LB1

Departure

Time 2026-04-21 13:07
Airport Ted Stevens Anchorage International Airport (PANC)

Arrival

Time 2026-04-21 22:28
Airport Kadena Air Base (RODN)
Time Latitude Longitude Altitude Speed Heading
2026-04-21 12:30 61.17915 -149.98758 166 ft 0 kts 174°
2026-04-21 12:49 61.17916 -149.98758 166 ft 1 kts 174°
2026-04-21 12:49 61.17928 -149.98764 166 ft 2 kts 167°
2026-04-21 12:49 61.17946 -149.98763 166 ft 4 kts 232°
2026-04-21 12:50 61.17953 -149.98743 166 ft 2 kts 242°
2026-04-21 12:50 61.17955 -149.98757 166 ft 3 kts 268°
2026-04-21 12:50 61.17954 -149.98831 166 ft 4 kts 92°
2026-04-21 12:50 61.17949 -149.98884 166 ft 4 kts 70°
2026-04-21 12:51 61.17940 -149.98936 166 ft 4 kts 70°
2026-04-21 12:51 61.17931 -149.98989 166 ft 4 kts 70°
2026-04-21 12:51 61.17921 -149.99041 166 ft 4 kts 70°
2026-04-21 12:51 61.17912 -149.99094 166 ft 4 kts 70°
2026-04-21 12:52 61.17907 -149.99121 166 ft 1 kts 70°
2026-04-21 12:52 61.17907 -149.99124 166 ft 0 kts 70°
2026-04-21 12:55 61.17907 -149.99123 166 ft 0 kts 70°
2026-04-21 12:55 61.17907 -149.99105 166 ft 2 kts 102°
2026-04-21 12:55 61.17895 -149.99091 166 ft 2 kts 172°
2026-04-21 12:55 61.17885 -149.99108 166 ft 2 kts 240°
2026-04-21 12:56 61.17882 -149.99166 166 ft 6 kts 265°
2026-04-21 12:56 61.17859 -149.99263 166 ft 8 kts 217°
2026-04-21 12:56 61.17811 -149.99272 166 ft 7 kts 171°
2026-04-21 12:56 61.17764 -149.99225 166 ft 9 kts 140°
2026-04-21 12:57 61.17707 -149.99138 166 ft 12 kts 155°
2026-04-21 12:57 61.17622 -149.99072 166 ft 14 kts 159°
2026-04-21 12:57 61.17525 -149.98997 166 ft 16 kts 160°
2026-04-21 12:57 61.17420 -149.98917 166 ft 15 kts 160°
2026-04-21 12:58 61.17336 -149.98854 166 ft 11 kts 160°
2026-04-21 12:58 61.17259 -149.98796 166 ft 13 kts 160°
2026-04-21 12:58 61.17173 -149.98730 166 ft 13 kts 158°
2026-04-21 12:58 61.17123 -149.98615 166 ft 9 kts 109°
2026-04-21 12:59 61.17115 -149.98476 166 ft 11 kts 91°
2026-04-21 12:59 61.17114 -149.98305 166 ft 13 kts 91°
2026-04-21 12:59 61.17113 -149.98105 166 ft 14 kts 90°
2026-04-21 12:59 61.17114 -149.97884 166 ft 16 kts 89°
2026-04-21 13:00 61.17116 -149.97646 166 ft 16 kts 89°
2026-04-21 13:00 61.17119 -149.97458 166 ft 11 kts 87°
2026-04-21 13:00 61.17124 -149.97288 166 ft 13 kts 86°
2026-04-21 13:00 61.17127 -149.97079 166 ft 15 kts 90°
2026-04-21 13:01 61.17127 -149.96904 166 ft 9 kts 90°
2026-04-21 13:01 61.17107 -149.96828 166 ft 6 kts 145°
2026-04-21 13:01 61.17059 -149.96803 166 ft 8 kts 179°
2026-04-21 13:01 61.17000 -149.96806 166 ft 9 kts 181°
2026-04-21 13:02 61.16942 -149.96813 166 ft 7 kts 192°
2026-04-21 13:02 61.16909 -149.96881 166 ft 7 kts 255°
2026-04-21 13:02 61.16892 -149.96966 166 ft 0 kts 247°
2026-04-21 13:03 61.16892 -149.96969 166 ft 1 kts 247°
2026-04-21 13:03 61.16890 -149.96975 166 ft 0 kts 247°
2026-04-21 13:03 61.16890 -149.96977 166 ft 0 kts 247°
2026-04-21 13:04 61.16887 -149.96990 166 ft 2 kts 247°
2026-04-21 13:04 61.16880 -149.97025 166 ft 3 kts 247°
2026-04-21 13:04 61.16868 -149.97084 166 ft 6 kts 247°
2026-04-21 13:04 61.16852 -149.97161 166 ft 4 kts 247°
2026-04-21 13:05 61.16846 -149.97191 166 ft 3 kts 247°
2026-04-21 13:05 61.16827 -149.97262 166 ft 9 kts 225°
2026-04-21 13:05 61.16792 -149.97353 166 ft 8 kts 251°
2026-04-21 13:05 61.16787 -149.97531 166 ft 21 kts 269°
2026-04-21 13:06 61.16786 -149.98165 166 ft 68 kts 270°
2026-04-21 13:06 61.16788 -149.99469 166 ft 113 kts 269°
2026-04-21 13:06 61.16784 -150.01413 167 ft 156 kts 269°
2026-04-21 13:06 61.16778 -150.03941 219 ft 189 kts 271°
2026-04-21 13:07 61.16830 -150.06728 702 ft 198 kts 271°
2026-04-21 13:07 61.16917 -150.09618 1335 ft 204 kts 270°
2026-04-21 13:07 61.16970 -150.12573 1967 ft 208 kts 269°
2026-04-21 13:07 61.16995 -150.15633 2392 ft 217 kts 268°
2026-04-21 13:08 61.16991 -150.18827 2794 ft 228 kts 267°
2026-04-21 13:08 61.16973 -150.22225 3151 ft 245 kts 267°
2026-04-21 13:08 61.16959 -150.25850 3581 ft 256 kts 267°
2026-04-21 13:08 61.16964 -150.29526 4047 ft 262 kts 269°
2026-04-21 13:09 61.17001 -150.33341 4783 ft 262 kts 269°
2026-04-21 13:09 61.17028 -150.37133 5474 ft 264 kts 268°
2026-04-21 13:09 61.17054 -150.40958 6159 ft 266 kts 268°
2026-04-21 13:09 61.17078 -150.44812 6840 ft 269 kts 269°
2026-04-21 13:10 61.17101 -150.48706 7512 ft 271 kts 269°
2026-04-21 13:10 61.17122 -150.52629 8161 ft 274 kts 269°
2026-04-21 13:10 61.17143 -150.56593 8820 ft 277 kts 269°
2026-04-21 13:10 61.17163 -150.60542 9481 ft 279 kts 269°
2026-04-21 13:11 61.17182 -150.64559 10191 ft 279 kts 269°
2026-04-21 13:11 61.17198 -150.68622 10546 ft 290 kts 270°
2026-04-21 13:11 61.17215 -150.72894 10933 ft 303 kts 270°
2026-04-21 13:11 61.17231 -150.77331 11424 ft 311 kts 270°
2026-04-21 13:12 61.17246 -150.81815 12171 ft 311 kts 271°
2026-04-21 13:12 61.17259 -150.86279 12960 ft 310 kts 271°
2026-04-21 13:12 61.17271 -150.90746 13703 ft 310 kts 271°
2026-04-21 13:12 61.17282 -150.95204 14410 ft 310 kts 271°
2026-04-21 13:13 61.17291 -150.99671 15105 ft 310 kts 270°
2026-04-21 13:13 61.17298 -151.04127 15774 ft 310 kts 270°
2026-04-21 13:13 61.17304 -151.08597 16416 ft 310 kts 270°
2026-04-21 13:13 61.17307 -151.13068 17046 ft 311 kts 270°
2026-04-21 13:14 61.17309 -151.17557 17660 ft 311 kts 270°
2026-04-21 13:14 61.17307 -151.22033 18278 ft 311 kts 270°
2026-04-21 13:14 61.17304 -151.26528 18859 ft 313 kts 271°
2026-04-21 13:14 61.17299 -151.31049 19396 ft 315 kts 271°
2026-04-21 13:15 61.17293 -151.35598 19914 ft 317 kts 271°
2026-04-21 13:15 61.17285 -151.40185 20423 ft 319 kts 271°
2026-04-21 13:15 61.17276 -151.44797 20924 ft 322 kts 271°
2026-04-21 13:15 61.17264 -151.49443 21419 ft 324 kts 271°
2026-04-21 13:16 61.17252 -151.54122 21902 ft 326 kts 271°
2026-04-21 13:16 61.17237 -151.58835 22377 ft 328 kts 271°
2026-04-21 13:16 61.17221 -151.63576 22834 ft 330 kts 271°
2026-04-21 13:16 61.17203 -151.68344 23286 ft 332 kts 271°
2026-04-21 13:17 61.17183 -151.73149 23733 ft 335 kts 271°
2026-04-21 13:17 61.17161 -151.77980 24173 ft 336 kts 271°
2026-04-21 13:17 61.17138 -151.82847 24587 ft 339 kts 271°
2026-04-21 13:17 61.17112 -151.87737 25006 ft 341 kts 271°
2026-04-21 13:18 61.17085 -151.92662 25400 ft 343 kts 271°
2026-04-21 13:18 61.17055 -151.97618 25798 ft 345 kts 271°
2026-04-21 13:18 61.17023 -152.02597 26203 ft 346 kts 271°
2026-04-21 13:18 61.16990 -152.07584 26634 ft 347 kts 271°
2026-04-21 13:19 61.16955 -152.12588 27005 ft 349 kts 271°
2026-04-21 13:19 61.16918 -152.17623 27370 ft 350 kts 271°
2026-04-21 13:19 61.16878 -152.22686 27720 ft 352 kts 271°
2026-04-21 13:19 61.16837 -152.27785 28055 ft 355 kts 271°
2026-04-21 13:20 61.16808 -152.31169 28285 ft 356 kts 271°
2026-04-21 13:20 61.16747 -152.38035 28746 ft 358 kts 271°
2026-04-21 13:20 61.16699 -152.43210 29060 ft 360 kts 271°
2026-04-21 13:20 61.16648 -152.48405 29365 ft 362 kts 271°
2026-04-21 13:21 61.16596 -152.53617 29699 ft 363 kts 271°
2026-04-21 13:21 61.16541 -152.58849 30007 ft 364 kts 271°
2026-04-21 13:21 61.16484 -152.64107 30281 ft 366 kts 271°
2026-04-21 13:21 61.16425 -152.69398 30528 ft 369 kts 271°
2026-04-21 13:22 61.16363 -152.74738 30747 ft 372 kts 271°
2026-04-21 13:22 61.16299 -152.80129 30962 ft 376 kts 270°
2026-04-21 13:22 61.16231 -152.85565 31179 ft 379 kts 270°
2026-04-21 13:22 61.16161 -152.91037 31392 ft 382 kts 270°
2026-04-21 13:23 61.16088 -152.96558 31599 ft 385 kts 270°
2026-04-21 13:23 61.16012 -153.02117 31795 ft 388 kts 270°
2026-04-21 13:23 61.15933 -153.07727 31948 ft 391 kts 270°
2026-04-21 13:23 61.15851 -153.13371 32004 ft 393 kts 270°
2026-04-21 13:24 61.15680 -153.24757 32028 ft 398 kts 270°
2026-04-21 13:24 61.15496 -153.36234 32030 ft 399 kts 270°
2026-04-21 13:25 61.15301 -153.47698 32033 ft 403 kts 270°
2026-04-21 13:25 61.15098 -153.59287 32029 ft 400 kts 270°
2026-04-21 13:26 61.14886 -153.70742 32034 ft 397 kts 270°
2026-04-21 13:26 61.14665 -153.82219 32021 ft 400 kts 270°
2026-04-21 13:27 61.14470 -153.91854 32013 ft 401 kts 269°
2026-04-21 13:27 61.14229 -154.03411 32011 ft 400 kts 269°
2026-04-21 13:28 61.13979 -154.14851 32004 ft 395 kts 269°
2026-04-21 13:28 61.13721 -154.26242 32012 ft 397 kts 269°
2026-04-21 13:29 61.13456 -154.37605 32016 ft 394 kts 269°
2026-04-21 13:29 61.13179 -154.48943 32030 ft 400 kts 269°
2026-04-21 13:30 61.12892 -154.60421 32023 ft 397 kts 269°
2026-04-21 13:30 61.12593 -154.71825 32027 ft 398 kts 269°
2026-04-21 13:31 61.12287 -154.83277 32016 ft 396 kts 269°
2026-04-21 13:31 61.11972 -154.94571 32015 ft 392 kts 268°
2026-04-21 13:32 61.11651 -155.05860 32027 ft 396 kts 268°
2026-04-21 13:32 61.11320 -155.17207 32022 ft 394 kts 268°
2026-04-21 13:33 61.10978 -155.28470 32020 ft 391 kts 268°
2026-04-21 13:33 61.10630 -155.39676 32020 ft 390 kts 268°
2026-04-21 13:34 61.10274 -155.50860 32020 ft 390 kts 268°
2026-04-21 13:34 61.09908 -155.62053 32019 ft 390 kts 268°
2026-04-21 13:35 61.09579 -155.73235 32020 ft 390 kts 268°
2026-04-21 13:35 61.09269 -155.84407 32021 ft 390 kts 268°
2026-04-21 13:36 61.08943 -155.95591 32025 ft 390 kts 268°
2026-04-21 13:36 61.08605 -156.06758 32030 ft 389 kts 268°
2026-04-21 13:37 61.08259 -156.17893 32035 ft 388 kts 268°
2026-04-21 13:37 61.07904 -156.29022 32043 ft 388 kts 268°
2026-04-21 13:38 61.07541 -156.40140 32049 ft 387 kts 268°
2026-04-21 13:38 61.07169 -156.51224 32057 ft 387 kts 268°
2026-04-21 13:39 61.06789 -156.62307 32065 ft 387 kts 268°
2026-04-21 13:39 61.06402 -156.73313 32072 ft 387 kts 267°
2026-04-21 13:40 61.06003 -156.84385 32078 ft 387 kts 267°
2026-04-21 13:40 61.05596 -156.95433 32083 ft 386 kts 267°
2026-04-21 13:41 61.05180 -157.06466 32086 ft 385 kts 267°
2026-04-21 13:41 61.04756 -157.17495 32091 ft 386 kts 267°
2026-04-21 13:42 61.04323 -157.28529 32130 ft 386 kts 267°
2026-04-21 13:42 61.03880 -157.39547 32139 ft 385 kts 267°
2026-04-21 13:43 61.03429 -157.50569 32140 ft 385 kts 266°
2026-04-21 13:43 61.02969 -157.61569 32141 ft 385 kts 266°
2026-04-21 13:44 61.02501 -157.72564 32141 ft 384 kts 266°
2026-04-21 13:44 61.02024 -157.83541 32142 ft 384 kts 266°
2026-04-21 13:45 61.01538 -157.94517 32141 ft 384 kts 266°
2026-04-21 13:45 61.01044 -158.05474 32142 ft 384 kts 266°
2026-04-21 13:46 61.00541 -158.16430 32143 ft 384 kts 266°
2026-04-21 13:46 61.00030 -158.27376 32143 ft 384 kts 266°
2026-04-21 13:47 60.99509 -158.38328 32144 ft 384 kts 266°
2026-04-21 13:47 60.98979 -158.49268 32145 ft 384 kts 266°
2026-04-21 13:48 60.98441 -158.60207 32147 ft 384 kts 266°
2026-04-21 13:48 60.97894 -158.71148 32148 ft 384 kts 265°
2026-04-21 13:49 60.97338 -158.82078 32149 ft 384 kts 265°
2026-04-21 13:49 60.96773 -158.93004 32150 ft 384 kts 265°
2026-04-21 13:50 60.96199 -159.03925 32151 ft 384 kts 265°
2026-04-21 13:50 60.95617 -159.14846 32149 ft 384 kts 265°
2026-04-21 13:51 60.95025 -159.25767 32149 ft 384 kts 265°
2026-04-21 13:51 60.94421 -159.36738 32149 ft 384 kts 265°
2026-04-21 13:52 60.93816 -159.47577 32149 ft 384 kts 265°
2026-04-21 13:52 60.93199 -159.58476 32153 ft 384 kts 265°
2026-04-21 13:53 60.92572 -159.69382 32162 ft 384 kts 265°
2026-04-21 13:53 60.91937 -159.80254 32162 ft 383 kts 265°
2026-04-21 13:54 60.91295 -159.91110 32165 ft 383 kts 265°
2026-04-21 13:54 60.90644 -160.01970 32173 ft 383 kts 264°
2026-04-21 13:55 60.89984 -160.12820 32175 ft 382 kts 264°
2026-04-21 13:55 60.89316 -160.23657 32176 ft 382 kts 264°
2026-04-21 13:56 60.88639 -160.34496 32178 ft 382 kts 264°
2026-04-21 13:56 60.87953 -160.45322 32184 ft 382 kts 264°
2026-04-21 13:57 60.87259 -160.56151 32185 ft 382 kts 264°
2026-04-21 13:57 60.86555 -160.66973 32187 ft 383 kts 264°
2026-04-21 13:58 60.85841 -160.77818 32188 ft 383 kts 264°
2026-04-21 13:58 60.85119 -160.88649 32190 ft 383 kts 264°
2026-04-21 13:59 60.84387 -160.99477 32191 ft 383 kts 264°
2026-04-21 13:59 60.83649 -161.10278 32192 ft 382 kts 264°
2026-04-21 14:00 60.82903 -161.21063 32194 ft 382 kts 263°
2026-04-21 14:00 60.82148 -161.31841 32195 ft 382 kts 263°
2026-04-21 14:01 60.81385 -161.42607 32199 ft 382 kts 263°
2026-04-21 14:01 60.80614 -161.53372 32200 ft 382 kts 263°
2026-04-21 14:02 60.79834 -161.64130 32199 ft 382 kts 263°
2026-04-21 14:03 60.78656 -161.80144 32199 ft 380 kts 263°
2026-04-21 14:03 60.78008 -161.90873 32199 ft 380 kts 265°
2026-04-21 14:04 60.77430 -162.01627 32202 ft 380 kts 265°
2026-04-21 14:04 60.76849 -162.12368 32218 ft 380 kts 265°
2026-04-21 14:05 60.76261 -162.23101 32219 ft 380 kts 264°
2026-04-21 14:05 60.75663 -162.33831 32219 ft 380 kts 264°
2026-04-21 14:06 60.75057 -162.44555 32219 ft 380 kts 264°
2026-04-21 14:06 60.74442 -162.55276 32219 ft 380 kts 264°
2026-04-21 14:07 60.73817 -162.66024 32219 ft 381 kts 264°
2026-04-21 14:07 60.73183 -162.76770 32219 ft 381 kts 264°
2026-04-21 14:08 60.72541 -162.87500 32218 ft 381 kts 264°
2026-04-21 14:08 60.71888 -162.98268 32219 ft 382 kts 264°
2026-04-21 14:09 60.71227 -163.09021 32219 ft 382 kts 264°
2026-04-21 14:09 60.70556 -163.19778 32218 ft 382 kts 263°
2026-04-21 14:10 60.69992 -163.28714 32218 ft 382 kts 263°
2026-04-21 14:10 60.69307 -163.39452 32221 ft 381 kts 263°
2026-04-21 14:11 60.68613 -163.50176 32222 ft 381 kts 263°
2026-04-21 14:11 60.67910 -163.60904 32222 ft 381 kts 263°
2026-04-21 14:12 60.67199 -163.71620 32222 ft 381 kts 263°
2026-04-21 14:12 60.66479 -163.82323 32231 ft 381 kts 263°
2026-04-21 14:13 60.65753 -163.93003 32232 ft 380 kts 263°
2026-04-21 14:13 60.65019 -164.03660 32232 ft 380 kts 263°
2026-04-21 14:14 60.64280 -164.14261 32242 ft 381 kts 262°
2026-04-21 14:14 60.63527 -164.24935 32245 ft 381 kts 262°
2026-04-21 14:15 60.62765 -164.35607 32246 ft 381 kts 262°
2026-04-21 14:15 60.61993 -164.46294 32247 ft 382 kts 262°
2026-04-21 14:16 60.61212 -164.56983 32248 ft 382 kts 262°
2026-04-21 14:16 60.60422 -164.67683 32248 ft 382 kts 262°
2026-04-21 14:17 60.59623 -164.78364 32248 ft 382 kts 262°
2026-04-21 14:17 60.58816 -164.89045 32249 ft 382 kts 262°
2026-04-21 14:18 60.57999 -164.99743 32249 ft 383 kts 262°
2026-04-21 14:18 60.57167 -165.10509 32249 ft 383 kts 261°
2026-04-21 14:19 60.56331 -165.21196 32249 ft 383 kts 261°
2026-04-21 14:19 60.55488 -165.31876 32249 ft 383 kts 261°
2026-04-21 14:20 60.54634 -165.42568 32250 ft 383 kts 261°
2026-04-21 14:20 60.53772 -165.53254 32250 ft 383 kts 261°
2026-04-21 14:21 60.52904 -165.63904 32249 ft 382 kts 261°
2026-04-21 14:21 60.52025 -165.74566 32248 ft 383 kts 261°
2026-04-21 14:22 60.51140 -165.85207 32247 ft 382 kts 260°
2026-04-21 14:22 60.50245 -165.95833 32247 ft 382 kts 260°
2026-04-21 14:23 60.49344 -166.06446 32245 ft 382 kts 260°
2026-04-21 14:23 60.48432 -166.17073 32245 ft 383 kts 260°
2026-04-21 14:24 60.47511 -166.27702 32240 ft 383 kts 260°
2026-04-21 14:24 60.46581 -166.38320 32240 ft 383 kts 260°
2026-04-21 14:25 60.45642 -166.48941 32239 ft 383 kts 260°
2026-04-21 14:25 60.44691 -166.59586 32240 ft 384 kts 259°
2026-04-21 14:26 60.43732 -166.70230 32239 ft 384 kts 259°
2026-04-21 14:26 60.42764 -166.80868 32238 ft 384 kts 259°
2026-04-21 14:27 60.41786 -166.91512 32238 ft 385 kts 259°
2026-04-21 14:27 60.40798 -167.02165 32237 ft 385 kts 259°
2026-04-21 14:28 60.39801 -167.12806 32237 ft 385 kts 259°
2026-04-21 14:28 60.38795 -167.23450 32235 ft 385 kts 259°
2026-04-21 14:29 60.37782 -167.34076 32235 ft 385 kts 259°
2026-04-21 14:29 60.36759 -167.44698 32233 ft 385 kts 258°
2026-04-21 14:30 60.35726 -167.55327 32232 ft 386 kts 258°
2026-04-21 14:30 60.34683 -167.65947 32230 ft 385 kts 258°
2026-04-21 14:31 60.33634 -167.76543 32229 ft 384 kts 258°
2026-04-21 14:31 60.32577 -167.87112 32227 ft 384 kts 258°
2026-04-21 14:32 60.31510 -167.97677 32225 ft 384 kts 258°
2026-04-21 14:32 60.30228 -168.08133 32224 ft 385 kts 252°
2026-04-21 14:33 60.28385 -168.18270 32222 ft 385 kts 250°
2026-04-21 14:33 60.26500 -168.28372 32219 ft 385 kts 251°
2026-04-21 14:34 60.24666 -168.38490 32216 ft 385 kts 251°
2026-04-21 14:34 60.22837 -168.48551 32214 ft 386 kts 251°
2026-04-21 14:35 60.20980 -168.58679 32212 ft 386 kts 251°
2026-04-21 14:35 60.19112 -168.68810 32209 ft 386 kts 250°
2026-04-21 14:36 60.17238 -168.78925 32206 ft 386 kts 250°
2026-04-21 14:36 60.15353 -168.89043 32203 ft 387 kts 250°
2026-04-21 14:37 60.13459 -168.99159 32200 ft 387 kts 250°
2026-04-21 14:37 60.11553 -169.09286 32197 ft 388 kts 250°
2026-04-21 14:38 60.09639 -169.19401 32194 ft 388 kts 250°
2026-04-21 14:38 60.07718 -169.29499 32191 ft 388 kts 250°
2026-04-21 14:39 60.05791 -169.39582 32188 ft 388 kts 249°
2026-04-21 14:39 60.03856 -169.49648 32182 ft 388 kts 249°
2026-04-21 14:40 60.01916 -169.59695 32156 ft 387 kts 249°
2026-04-21 14:40 59.99966 -169.69735 32147 ft 387 kts 249°
2026-04-21 14:41 59.98010 -169.79761 32105 ft 387 kts 249°
2026-04-21 14:41 59.96046 -169.89773 32091 ft 387 kts 249°
2026-04-21 14:42 59.94088 -169.99708 32086 ft 387 kts 249°
2026-04-21 14:42 59.92110 -170.09693 32081 ft 387 kts 249°
2026-04-21 14:43 59.90111 -170.19733 32076 ft 387 kts 249°
2026-04-21 14:43 59.88129 -170.29642 32089 ft 388 kts 248°
2026-04-21 14:44 59.86124 -170.39617 32097 ft 388 kts 248°
2026-04-21 14:44 59.84094 -170.49660 32094 ft 389 kts 248°
2026-04-21 14:45 59.82080 -170.59579 32070 ft 390 kts 248°
2026-04-21 14:45 59.80041 -170.69571 32058 ft 391 kts 248°
2026-04-21 14:46 59.77989 -170.79574 32054 ft 391 kts 248°
2026-04-21 14:46 59.75926 -170.89584 32052 ft 392 kts 247°
2026-04-21 14:47 59.73852 -170.99599 32050 ft 393 kts 247°
2026-04-21 14:47 59.71766 -171.09622 32047 ft 394 kts 247°
2026-04-21 14:48 59.69671 -171.19636 32044 ft 393 kts 247°
2026-04-21 14:48 59.67569 -171.29635 32042 ft 393 kts 246°
2026-04-21 14:49 59.65460 -171.39623 32038 ft 394 kts 246°
2026-04-21 14:49 59.63341 -171.49604 32028 ft 394 kts 246°
2026-04-21 14:50 59.61576 -171.57886 32024 ft 393 kts 246°
2026-04-21 14:50 59.59088 -171.69498 32021 ft 393 kts 246°
2026-04-21 14:51 59.57313 -171.77747 32013 ft 393 kts 246°
2026-04-21 14:51 59.54810 -171.89325 31917 ft 393 kts 246°
2026-04-21 14:52 59.52752 -171.99292 31898 ft 393 kts 247°
2026-04-21 14:52 59.50734 -172.09298 31895 ft 394 kts 247°
2026-04-21 14:53 59.49036 -172.17618 31895 ft 394 kts 247°
2026-04-21 14:53 59.46641 -172.29250 31894 ft 395 kts 247°
2026-04-21 14:54 59.44571 -172.39259 31893 ft 396 kts 246°
2026-04-21 14:54 59.42827 -172.47654 31892 ft 397 kts 246°
2026-04-21 14:55 59.40733 -172.57691 31890 ft 398 kts 246°
2026-04-21 14:55 59.38626 -172.67738 31890 ft 398 kts 246°
2026-04-21 14:56 59.36510 -172.77780 31889 ft 399 kts 246°
2026-04-21 14:56 59.34396 -172.87765 31890 ft 400 kts 246°
2026-04-21 14:57 59.32254 -172.97831 31888 ft 400 kts 246°
2026-04-21 14:57 59.30103 -173.07889 31887 ft 401 kts 245°
2026-04-21 14:58 59.27941 -173.17952 31887 ft 401 kts 245°
2026-04-21 14:58 59.25771 -173.28004 31886 ft 401 kts 245°
2026-04-21 14:59 59.23590 -173.38054 31885 ft 402 kts 245°
2026-04-21 14:59 59.21399 -173.48108 31885 ft 403 kts 245°
2026-04-21 15:00 59.19197 -173.58157 31884 ft 402 kts 245°
2026-04-21 15:00 59.16989 -173.68190 31883 ft 402 kts 245°
2026-04-21 15:01 59.14773 -173.78210 31881 ft 403 kts 245°
2026-04-21 15:01 59.12546 -173.88231 31881 ft 404 kts 245°
2026-04-21 15:02 59.10324 -173.98181 31880 ft 404 kts 245°
2026-04-21 15:02 59.08076 -174.08201 31880 ft 405 kts 244°
2026-04-21 15:03 59.05808 -174.18260 31880 ft 407 kts 244°
2026-04-21 15:03 59.03577 -174.28368 31880 ft 407 kts 245°
2026-04-21 15:04 59.01387 -174.38508 31879 ft 408 kts 245°
2026-04-21 15:04 58.99176 -174.48653 31872 ft 408 kts 245°
2026-04-21 15:05 58.96950 -174.58785 31869 ft 409 kts 245°
2026-04-21 15:05 58.93593 -174.73978 31867 ft 409 kts 244°
2026-04-21 15:06 58.91345 -174.84093 31867 ft 410 kts 244°
2026-04-21 15:06 58.89086 -174.94212 31865 ft 410 kts 244°
2026-04-21 15:07 58.86814 -175.04336 31865 ft 411 kts 244°
2026-04-21 15:07 58.84533 -175.14450 31864 ft 411 kts 244°
2026-04-21 15:08 58.82241 -175.24569 31863 ft 412 kts 244°
2026-04-21 15:08 58.79938 -175.34684 31862 ft 412 kts 244°
2026-04-21 15:09 58.77642 -175.44726 31861 ft 412 kts 244°
2026-04-21 15:09 58.75318 -175.54835 31860 ft 413 kts 244°
2026-04-21 15:10 58.72969 -175.65012 31859 ft 413 kts 243°
2026-04-21 15:10 58.70640 -175.75049 31857 ft 414 kts 243°
2026-04-21 15:11 58.68283 -175.85163 31856 ft 414 kts 243°
2026-04-21 15:11 58.65917 -175.95265 31855 ft 414 kts 243°
2026-04-21 15:12 58.63545 -176.05350 31852 ft 415 kts 243°
2026-04-21 15:12 58.61156 -176.15454 31852 ft 416 kts 243°
2026-04-21 15:13 58.58756 -176.25559 31852 ft 417 kts 243°
2026-04-21 15:13 58.56345 -176.35663 31849 ft 416 kts 243°
2026-04-21 15:14 58.53930 -176.45741 31847 ft 417 kts 243°
2026-04-21 15:14 58.51505 -176.55809 31846 ft 417 kts 242°
2026-04-21 15:15 58.49071 -176.65866 31845 ft 417 kts 242°
2026-04-21 15:15 58.46628 -176.75920 31846 ft 417 kts 242°
2026-04-21 15:16 58.44178 -176.85954 31733 ft 417 kts 242°
2026-04-21 15:16 58.41714 -176.95995 31651 ft 418 kts 242°
2026-04-21 15:17 58.39245 -177.06015 31635 ft 417 kts 242°
2026-04-21 15:17 58.36771 -177.16029 31628 ft 418 kts 242°
2026-04-21 15:18 58.34295 -177.26038 31623 ft 418 kts 241°
2026-04-21 15:18 58.31806 -177.36055 31616 ft 419 kts 241°
2026-04-21 15:19 58.29291 -177.46130 31579 ft 427 kts 239°
2026-04-21 15:19 58.26697 -177.56452 31511 ft 436 kts 239°
2026-04-21 15:20 58.24075 -177.66861 31493 ft 437 kts 239°
2026-04-21 15:20 58.21439 -177.77275 31489 ft 438 kts 239°
2026-04-21 15:21 58.18786 -177.87701 31482 ft 440 kts 239°
2026-04-21 15:21 58.16137 -177.98065 31477 ft 440 kts 239°
2026-04-21 15:22 58.13462 -178.08481 31473 ft 440 kts 239°
2026-04-21 15:22 58.10772 -178.18904 31468 ft 440 kts 239°
2026-04-21 15:23 58.08081 -178.29287 31464 ft 440 kts 239°
2026-04-21 15:23 58.05381 -178.39655 31459 ft 439 kts 238°
2026-04-21 15:24 58.02677 -178.49989 31455 ft 439 kts 238°
2026-04-21 15:24 57.99970 -178.60288 31450 ft 438 kts 238°
2026-04-21 15:25 57.97244 -178.70607 31447 ft 443 kts 238°
2026-04-21 15:25 57.94479 -178.81024 31443 ft 445 kts 238°
2026-04-21 15:26 57.91705 -178.91436 31439 ft 446 kts 238°
2026-04-21 15:26 57.88914 -179.01863 31434 ft 447 kts 238°
2026-04-21 15:27 57.86108 -179.12294 31430 ft 447 kts 237°
2026-04-21 15:27 57.83294 -179.22708 31427 ft 447 kts 237°
2026-04-21 15:28 57.80470 -179.33109 31423 ft 448 kts 237°
2026-04-21 15:28 57.77636 -179.43503 31419 ft 448 kts 237°
2026-04-21 15:29 57.74796 -179.53872 31416 ft 448 kts 237°
2026-04-21 15:29 57.71946 -179.64228 31412 ft 447 kts 237°
2026-04-21 15:30 57.69091 -179.74553 31409 ft 447 kts 237°
2026-04-21 15:30 57.66232 -179.84851 31406 ft 446 kts 237°
2026-04-21 15:31 57.63382 -179.95064 31403 ft 446 kts 237°
2026-04-21 15:31 57.60509 179.94681 31410 ft 446 kts 237°
2026-04-21 15:32 57.57619 179.84415 31518 ft 447 kts 237°
2026-04-21 15:32 57.54713 179.74138 31655 ft 449 kts 237°
2026-04-21 15:33 57.51797 179.63868 31699 ft 450 kts 236°
2026-04-21 15:33 57.48864 179.53586 31697 ft 450 kts 236°
2026-04-21 15:34 57.45920 179.43311 31690 ft 451 kts 236°
2026-04-21 15:34 57.42958 179.33020 31684 ft 453 kts 236°
2026-04-21 15:35 57.39976 179.22705 31677 ft 454 kts 236°
2026-04-21 15:35 57.36984 179.12399 31672 ft 454 kts 236°
2026-04-21 15:36 57.33978 179.02094 31665 ft 455 kts 236°
2026-04-21 15:36 57.30976 178.91846 31659 ft 456 kts 236°
2026-04-21 15:37 57.27943 178.81539 31655 ft 457 kts 236°
2026-04-21 15:37 57.24897 178.71233 31649 ft 457 kts 235°
2026-04-21 15:38 57.21838 178.60928 31643 ft 458 kts 235°
2026-04-21 15:38 57.18767 178.50628 31635 ft 458 kts 235°
2026-04-21 15:39 57.15689 178.40352 31628 ft 458 kts 235°
2026-04-21 15:39 57.12598 178.30078 31622 ft 459 kts 235°
2026-04-21 15:40 57.09496 178.19812 31615 ft 459 kts 235°
2026-04-21 15:40 57.06385 178.09559 31609 ft 460 kts 234°
2026-04-21 15:41 57.03790 178.01041 31604 ft 460 kts 234°
2026-04-21 15:41 57.00651 177.90786 31598 ft 462 kts 234°
2026-04-21 15:42 56.97484 177.80479 31592 ft 464 kts 234°
2026-04-21 15:42 56.94307 177.70177 31585 ft 465 kts 234°
2026-04-21 15:43 56.91117 177.59883 31578 ft 465 kts 234°
2026-04-21 15:43 56.87912 177.49590 31590 ft 466 kts 234°
2026-04-21 15:44 56.84696 177.39303 31614 ft 467 kts 234°
2026-04-21 15:44 56.81464 177.29026 31611 ft 467 kts 234°
2026-04-21 15:45 56.78206 177.18756 31605 ft 468 kts 234°
2026-04-21 15:45 56.74939 177.08501 31599 ft 468 kts 234°
2026-04-21 15:46 56.71658 176.98239 31593 ft 469 kts 234°
2026-04-21 15:46 56.68388 176.88053 31587 ft 469 kts 234°
2026-04-21 15:47 56.65060 176.77735 31580 ft 471 kts 234°
2026-04-21 15:47 56.61735 176.67470 31574 ft 472 kts 234°
2026-04-21 15:48 56.58395 176.57202 31569 ft 473 kts 234°
2026-04-21 15:48 56.55058 176.46988 31563 ft 475 kts 234°
2026-04-21 15:49 56.51657 176.36623 31557 ft 476 kts 234°
2026-04-21 15:49 56.48261 176.26316 31551 ft 477 kts 234°
2026-04-21 15:50 56.44868 176.16063 31545 ft 479 kts 234°
2026-04-21 15:50 56.41435 176.05733 31540 ft 480 kts 234°
2026-04-21 15:51 56.37987 175.95401 31533 ft 481 kts 234°
2026-04-21 15:51 56.34523 175.85067 31528 ft 482 kts 234°
2026-04-21 15:52 56.31046 175.74739 31523 ft 482 kts 234°
2026-04-21 15:52 56.27562 175.64435 31517 ft 481 kts 234°
2026-04-21 15:53 56.24074 175.54159 31512 ft 481 kts 234°
2026-04-21 15:53 56.20575 175.43902 31507 ft 481 kts 234°
2026-04-21 15:54 56.17075 175.33681 31502 ft 481 kts 234°
2026-04-21 15:54 56.13565 175.23477 31496 ft 481 kts 234°
2026-04-21 15:55 56.10045 175.13283 31491 ft 481 kts 234°
2026-04-21 15:55 56.06519 175.03117 31486 ft 481 kts 234°
2026-04-21 15:56 56.02982 174.92962 31481 ft 481 kts 234°
2026-04-21 15:56 55.99429 174.82801 31476 ft 482 kts 234°
2026-04-21 15:57 55.95845 174.72604 31474 ft 487 kts 234°
2026-04-21 15:57 55.92231 174.62356 31469 ft 488 kts 234°
2026-04-21 15:58 55.88607 174.52118 31464 ft 489 kts 234°
2026-04-21 15:58 55.84970 174.41891 31460 ft 489 kts 234°
2026-04-21 15:59 55.81346 174.31746 31456 ft 488 kts 234°
2026-04-21 15:59 55.77697 174.21569 31452 ft 488 kts 234°
2026-04-21 16:00 55.74038 174.11412 31448 ft 489 kts 234°
2026-04-21 16:00 55.70368 174.01265 31486 ft 489 kts 234°
2026-04-21 16:01 55.66689 173.91134 31504 ft 489 kts 234°
2026-04-21 16:01 55.63000 173.81019 31502 ft 489 kts 234°
2026-04-21 16:02 55.59303 173.70921 31498 ft 489 kts 234°
2026-04-21 16:02 55.55596 173.60840 31495 ft 489 kts 234°
2026-04-21 16:03 55.51879 173.50772 31493 ft 490 kts 234°
2026-04-21 16:03 55.48150 173.40716 31489 ft 490 kts 234°
2026-04-21 16:04 55.44410 173.30670 31486 ft 490 kts 234°
2026-04-21 16:04 55.40663 173.20645 31484 ft 490 kts 234°
2026-04-21 16:05 55.36934 173.10707 31481 ft 490 kts 234°
2026-04-21 16:05 55.33169 173.00717 31478 ft 490 kts 234°
2026-04-21 16:06 55.29393 172.90736 31477 ft 491 kts 234°
2026-04-21 16:06 55.25612 172.80784 31475 ft 491 kts 234°
2026-04-21 16:07 55.21820 172.70843 31473 ft 490 kts 234°
2026-04-21 16:07 55.18022 172.60926 31472 ft 490 kts 234°
2026-04-21 16:08 55.12307 172.46078 31471 ft 491 kts 234°
2026-04-21 16:09 55.08486 172.36201 31469 ft 490 kts 234°
2026-04-21 16:09 55.04660 172.26351 31468 ft 491 kts 234°
2026-04-21 16:10 55.00821 172.16505 31468 ft 491 kts 234°
2026-04-21 16:10 54.96970 172.06668 31468 ft 492 kts 234°
2026-04-21 16:11 54.93082 171.96874 31469 ft 491 kts 233°
2026-04-21 16:11 54.88850 171.87579 31468 ft 490 kts 229°
2026-04-21 16:12 54.85176 171.80007 31467 ft 490 kts 229°
2026-04-21 16:12 54.80097 171.69471 31467 ft 490 kts 229°
2026-04-21 16:13 54.75757 171.60364 31467 ft 490 kts 230°
2026-04-21 16:13 54.71412 171.51260 31467 ft 490 kts 230°
2026-04-21 16:14 54.67056 171.42184 31467 ft 491 kts 229°
2026-04-21 16:14 54.62692 171.33131 31468 ft 491 kts 229°
2026-04-21 16:15 54.58316 171.24087 31469 ft 491 kts 229°
2026-04-21 16:15 54.53939 171.15073 31470 ft 490 kts 229°
2026-04-21 16:16 54.49559 171.06083 31471 ft 490 kts 229°
2026-04-21 16:16 54.45169 170.97109 31473 ft 490 kts 229°
2026-04-21 16:17 54.40778 170.88165 31475 ft 489 kts 230°
2026-04-21 16:17 54.36379 170.79236 31477 ft 489 kts 230°
2026-04-21 16:18 54.32009 170.70398 31479 ft 489 kts 230°
2026-04-21 16:18 54.27600 170.61515 31482 ft 489 kts 230°
2026-04-21 16:19 54.23185 170.52651 31485 ft 490 kts 230°
2026-04-21 16:19 54.18764 170.43806 31485 ft 489 kts 230°
2026-04-21 16:20 54.14328 170.34964 31491 ft 490 kts 230°
2026-04-21 16:20 54.09891 170.26152 31495 ft 490 kts 230°
2026-04-21 16:21 54.05449 170.17361 31498 ft 489 kts 230°
2026-04-21 16:21 54.01006 170.08599 31502 ft 489 kts 230°
2026-04-21 16:22 53.97305 170.01325 31506 ft 489 kts 230°
2026-04-21 16:22 53.92096 169.91123 31511 ft 489 kts 230°
2026-04-21 16:23 53.87634 169.82417 31515 ft 489 kts 230°
2026-04-21 16:23 53.83161 169.73722 31520 ft 489 kts 230°
2026-04-21 16:24 53.78683 169.65047 31525 ft 489 kts 230°
2026-04-21 16:24 53.74204 169.56400 31531 ft 489 kts 230°
2026-04-21 16:25 53.69717 169.47769 31536 ft 489 kts 230°
2026-04-21 16:25 53.65230 169.39169 31534 ft 488 kts 230°
2026-04-21 16:26 53.61752 169.31717 31514 ft 487 kts 239°
2026-04-21 16:26 53.57962 169.20152 31519 ft 484 kts 245°
2026-04-21 16:27 53.55424 169.11689 31523 ft 484 kts 245°
2026-04-21 16:27 53.51772 169.00077 31532 ft 483 kts 244°
2026-04-21 16:28 53.49096 168.91826 31539 ft 483 kts 243°
2026-04-21 16:28 53.45874 168.81938 31547 ft 483 kts 243°
2026-04-21 16:29 53.42654 168.72060 31555 ft 482 kts 244°
2026-04-21 16:29 53.39432 168.62199 31563 ft 482 kts 244°
2026-04-21 16:30 53.36203 168.52356 31572 ft 482 kts 243°
2026-04-21 16:30 53.32962 168.42520 31581 ft 482 kts 243°
2026-04-21 16:31 53.29713 168.32705 31589 ft 482 kts 243°
2026-04-21 16:31 53.26446 168.22900 31598 ft 482 kts 243°
2026-04-21 16:32 53.23177 168.13137 31607 ft 482 kts 243°
2026-04-21 16:32 53.19901 168.03388 31616 ft 482 kts 243°
2026-04-21 16:33 53.16617 167.93654 31626 ft 480 kts 243°
2026-04-21 16:33 53.13343 167.83985 31634 ft 479 kts 243°
2026-04-21 16:34 53.10063 167.74333 31644 ft 478 kts 244°
2026-04-21 16:34 53.06780 167.64713 31654 ft 478 kts 243°
2026-04-21 16:35 53.03493 167.55120 31663 ft 477 kts 243°
2026-04-21 16:35 53.00206 167.45561 31672 ft 476 kts 244°
2026-04-21 16:36 52.96915 167.36031 31682 ft 476 kts 243°
2026-04-21 16:36 52.93617 167.26513 31692 ft 475 kts 243°
2026-04-21 16:37 52.90316 167.17027 31696 ft 475 kts 244°
2026-04-21 16:37 52.87011 167.07561 31679 ft 474 kts 243°
2026-04-21 16:38 52.83703 166.98126 31685 ft 474 kts 244°
2026-04-21 16:38 52.80411 166.88769 31695 ft 473 kts 243°
2026-04-21 16:39 52.77075 166.79324 31705 ft 473 kts 243°
2026-04-21 16:39 52.73754 166.69960 31716 ft 472 kts 243°
2026-04-21 16:40 52.70437 166.60638 31727 ft 471 kts 243°
2026-04-21 16:40 52.67112 166.51330 31738 ft 470 kts 243°
2026-04-21 16:41 52.63813 166.42127 31748 ft 469 kts 243°
2026-04-21 16:41 52.60491 166.32897 31758 ft 468 kts 244°
2026-04-21 16:42 52.57169 166.23697 31769 ft 467 kts 244°
2026-04-21 16:42 52.53846 166.14530 31779 ft 466 kts 244°
2026-04-21 16:43 52.50523 166.05395 31789 ft 466 kts 244°
2026-04-21 16:43 52.47196 165.96283 31799 ft 465 kts 244°
2026-04-21 16:44 52.43870 165.87207 31809 ft 464 kts 244°
2026-04-21 16:44 52.40540 165.78150 31819 ft 464 kts 243°
2026-04-21 16:45 52.37205 165.69115 31828 ft 464 kts 243°
2026-04-21 16:45 52.33858 165.60078 31838 ft 464 kts 243°
2026-04-21 16:46 52.30507 165.51064 31848 ft 464 kts 243°
2026-04-21 16:46 52.27150 165.42065 31857 ft 464 kts 243°
2026-04-21 16:47 52.23788 165.33086 31867 ft 463 kts 243°
2026-04-21 16:47 52.20421 165.24124 31875 ft 464 kts 243°
2026-04-21 16:48 52.17046 165.15172 31884 ft 464 kts 243°
2026-04-21 16:48 52.13662 165.06227 31893 ft 464 kts 243°
2026-04-21 16:49 52.10292 164.97352 31902 ft 463 kts 243°
2026-04-21 16:49 52.06882 164.88403 31914 ft 463 kts 243°
2026-04-21 16:50 52.03488 164.79528 31922 ft 462 kts 243°
2026-04-21 16:50 52.00119 164.70746 31930 ft 461 kts 243°
2026-04-21 16:51 51.96730 164.61951 31937 ft 457 kts 243°
2026-04-21 16:51 51.93338 164.53169 31945 ft 456 kts 243°
2026-04-21 16:52 51.89987 164.44518 31954 ft 456 kts 243°
2026-04-21 16:52 51.86603 164.35815 31961 ft 457 kts 243°
2026-04-21 16:53 51.83212 164.27128 31968 ft 457 kts 243°
2026-04-21 16:53 51.79814 164.18452 31976 ft 457 kts 243°
2026-04-21 16:54 51.76406 164.09781 31982 ft 457 kts 243°
2026-04-21 16:54 51.72994 164.01126 31988 ft 457 kts 243°
2026-04-21 16:55 51.69577 163.92490 31995 ft 456 kts 242°
2026-04-21 16:55 51.66157 163.83874 32001 ft 456 kts 243°
2026-04-21 16:56 51.62733 163.75279 32008 ft 456 kts 242°
2026-04-21 16:56 51.59309 163.66709 32014 ft 455 kts 243°
2026-04-21 16:57 51.55885 163.58168 32019 ft 454 kts 243°
2026-04-21 16:57 51.52460 163.49652 32024 ft 453 kts 243°
2026-04-21 16:58 51.49037 163.41168 32030 ft 452 kts 243°
2026-04-21 16:58 51.45612 163.32709 32035 ft 451 kts 243°
2026-04-21 16:59 51.42189 163.24282 32040 ft 451 kts 243°
2026-04-21 16:59 51.38769 163.15888 32044 ft 450 kts 243°
2026-04-21 17:00 51.35346 163.07515 32050 ft 449 kts 243°
2026-04-21 17:00 51.32502 163.00578 32052 ft 448 kts 243°
2026-04-21 17:01 51.28502 162.90855 32058 ft 448 kts 243°
2026-04-21 17:01 51.25075 162.82552 32061 ft 447 kts 243°
2026-04-21 17:02 51.21647 162.74273 32066 ft 447 kts 243°
2026-04-21 17:02 51.18218 162.66018 32069 ft 446 kts 243°
2026-04-21 17:03 51.14790 162.57793 32073 ft 445 kts 243°
2026-04-21 17:03 51.11380 162.49635 32076 ft 445 kts 243°
2026-04-21 17:04 51.07945 162.41445 32078 ft 445 kts 243°
2026-04-21 17:04 51.04502 162.33261 32083 ft 445 kts 243°
2026-04-21 17:05 51.01060 162.25104 32086 ft 444 kts 243°
2026-04-21 17:05 50.97623 162.16988 32089 ft 443 kts 243°
2026-04-21 17:06 50.94186 162.08893 32091 ft 442 kts 243°
2026-04-21 17:06 50.90744 162.00813 32094 ft 442 kts 244°
2026-04-21 17:07 50.87861 161.94068 32096 ft 440 kts 244°
2026-04-21 17:07 50.83886 161.84793 32098 ft 438 kts 244°
2026-04-21 17:08 50.80464 161.76830 32100 ft 437 kts 244°
2026-04-21 17:08 50.77040 161.68887 32102 ft 437 kts 244°
2026-04-21 17:09 50.71896 161.57004 32105 ft 437 kts 244°
2026-04-21 17:09 50.68460 161.49097 32106 ft 437 kts 244°
2026-04-21 17:10 50.65021 161.41205 32108 ft 436 kts 244°
2026-04-21 17:10 50.61582 161.33341 32108 ft 436 kts 244°
2026-04-21 17:11 50.58142 161.25494 32109 ft 435 kts 244°
2026-04-21 17:11 50.54696 161.17657 32111 ft 435 kts 244°
2026-04-21 17:12 50.51831 161.11158 32111 ft 435 kts 244°
2026-04-21 17:12 50.48377 161.03347 32112 ft 435 kts 244°
2026-04-21 17:13 50.44917 160.95546 32112 ft 435 kts 243°
2026-04-21 17:13 50.41451 160.87752 32113 ft 436 kts 243°
2026-04-21 17:14 50.37977 160.79967 32114 ft 436 kts 243°
2026-04-21 17:14 50.34500 160.72199 32114 ft 435 kts 243°
2026-04-21 17:15 50.31027 160.64462 32114 ft 434 kts 243°
2026-04-21 17:15 50.27555 160.56744 32115 ft 433 kts 243°
2026-04-21 17:16 50.24080 160.49047 32115 ft 433 kts 243°
2026-04-21 17:16 50.20606 160.41373 32115 ft 433 kts 243°
2026-04-21 17:17 50.17121 160.33715 32115 ft 433 kts 243°
2026-04-21 17:17 50.13623 160.26077 32115 ft 433 kts 243°
2026-04-21 17:18 50.10128 160.18466 32114 ft 432 kts 243°
2026-04-21 17:18 50.06633 160.10872 32113 ft 431 kts 243°
2026-04-21 17:19 50.03133 160.03289 32100 ft 431 kts 243°
2026-04-21 17:19 49.99630 159.95720 32090 ft 431 kts 243°
2026-04-21 17:20 49.96120 159.88159 32088 ft 431 kts 243°
2026-04-21 17:20 49.92604 159.80608 32087 ft 432 kts 243°
2026-04-21 17:21 49.89080 159.73058 32087 ft 431 kts 242°
2026-04-21 17:21 49.85578 159.65581 32086 ft 431 kts 242°
2026-04-21 17:22 49.82049 159.58064 32083 ft 431 kts 242°
2026-04-21 17:22 49.78511 159.50550 32084 ft 431 kts 242°
2026-04-21 17:23 49.74972 159.43056 32084 ft 432 kts 242°
2026-04-21 17:23 49.71429 159.35573 32083 ft 431 kts 241°
2026-04-21 17:24 49.67837 159.28154 32081 ft 431 kts 240°
2026-04-21 17:24 49.64206 159.20776 32080 ft 431 kts 240°
2026-04-21 17:25 49.60580 159.13409 32078 ft 431 kts 239°
2026-04-21 17:25 49.56954 159.06048 32077 ft 431 kts 239°
2026-04-21 17:26 49.53328 158.98707 32076 ft 431 kts 239°
2026-04-21 17:26 49.49697 158.91378 32074 ft 430 kts 239°
2026-04-21 17:27 49.46066 158.84068 32073 ft 430 kts 239°
2026-04-21 17:27 49.42427 158.76765 32072 ft 430 kts 238°
2026-04-21 17:28 49.38787 158.69477 32069 ft 430 kts 238°
2026-04-21 17:28 49.35138 158.62192 32069 ft 430 kts 238°
2026-04-21 17:29 49.31491 158.54932 32066 ft 429 kts 238°
2026-04-21 17:29 49.27839 158.47680 32065 ft 430 kts 238°
2026-04-21 17:30 49.24188 158.40451 32079 ft 429 kts 238°
2026-04-21 17:30 49.20527 158.33221 32154 ft 430 kts 238°
2026-04-21 17:31 49.16865 158.26010 32167 ft 429 kts 237°
2026-04-21 17:31 49.13224 158.18858 32166 ft 429 kts 237°
2026-04-21 17:32 49.09553 158.11666 32165 ft 429 kts 237°
2026-04-21 17:32 49.05879 158.04488 32163 ft 429 kts 237°
2026-04-21 17:33 49.02200 157.97318 32161 ft 429 kts 236°
2026-04-21 17:33 48.98515 157.90157 32160 ft 429 kts 236°
2026-04-21 17:34 48.94823 157.83006 32158 ft 430 kts 236°
2026-04-21 17:34 48.91128 157.75864 32157 ft 430 kts 236°
2026-04-21 17:35 48.87428 157.68731 32155 ft 430 kts 236°
2026-04-21 17:35 48.83720 157.61603 32154 ft 430 kts 236°
2026-04-21 17:36 48.80011 157.54492 32151 ft 430 kts 235°
2026-04-21 17:36 48.76298 157.47392 32150 ft 430 kts 235°
2026-04-21 17:37 48.72576 157.40293 32148 ft 430 kts 235°
2026-04-21 17:37 48.68852 157.33209 32145 ft 430 kts 235°
2026-04-21 17:38 48.65122 157.26132 32144 ft 430 kts 235°
2026-04-21 17:38 48.61389 157.19070 32142 ft 430 kts 234°
2026-04-21 17:39 48.57649 157.12011 32140 ft 430 kts 234°
2026-04-21 17:39 48.53910 157.04974 32137 ft 430 kts 234°
2026-04-21 17:40 48.50164 156.97941 32135 ft 430 kts 234°
2026-04-21 17:40 48.46439 156.90968 32133 ft 430 kts 234°
2026-04-21 17:41 48.42684 156.83955 32131 ft 430 kts 234°
2026-04-21 17:41 48.38931 156.76965 32128 ft 429 kts 233°
2026-04-21 17:42 48.35172 156.69981 32124 ft 430 kts 233°
2026-04-21 17:42 48.31408 156.63006 32124 ft 429 kts 233°
2026-04-21 17:43 48.27644 156.56049 32122 ft 429 kts 233°
2026-04-21 17:43 48.23875 156.49103 32119 ft 429 kts 233°
2026-04-21 17:44 48.20109 156.42178 32116 ft 428 kts 232°
2026-04-21 17:44 48.16341 156.35268 32112 ft 428 kts 232°
2026-04-21 17:45 48.12559 156.28349 32111 ft 429 kts 232°
2026-04-21 17:45 48.08783 156.21460 32109 ft 428 kts 232°
2026-04-21 17:46 48.05001 156.14577 32106 ft 429 kts 232°
2026-04-21 17:46 48.01213 156.07703 32103 ft 429 kts 232°
2026-04-21 17:47 47.97418 156.00832 32101 ft 429 kts 232°
2026-04-21 17:47 47.93621 155.93975 32098 ft 429 kts 232°
2026-04-21 17:48 47.89819 155.87126 32095 ft 428 kts 232°
2026-04-21 17:48 47.86018 155.80295 32092 ft 429 kts 232°
2026-04-21 17:49 47.82210 155.73470 32089 ft 428 kts 231°
2026-04-21 17:49 47.78401 155.66660 32086 ft 428 kts 231°
2026-04-21 17:50 47.74593 155.59870 32083 ft 427 kts 231°
2026-04-21 17:50 47.70789 155.53103 32079 ft 427 kts 231°
2026-04-21 17:51 47.66984 155.46350 32076 ft 426 kts 231°
2026-04-21 17:51 47.63181 155.39620 32073 ft 425 kts 230°
2026-04-21 17:52 47.59377 155.32905 32051 ft 425 kts 230°
2026-04-21 17:52 47.55573 155.26205 31946 ft 425 kts 230°
2026-04-21 17:53 47.51763 155.19511 31912 ft 425 kts 230°
2026-04-21 17:53 47.47956 155.12838 31905 ft 424 kts 230°
2026-04-21 17:54 47.44171 155.06223 31900 ft 424 kts 229°
2026-04-21 17:54 47.40362 154.99581 31896 ft 424 kts 229°
2026-04-21 17:55 47.36550 154.92949 31893 ft 424 kts 229°
2026-04-21 17:55 47.32740 154.86338 31887 ft 423 kts 229°
2026-04-21 17:56 47.28925 154.79734 31884 ft 423 kts 229°
2026-04-21 17:56 47.25111 154.73147 31878 ft 422 kts 228°
2026-04-21 17:57 47.21297 154.66577 31874 ft 422 kts 228°
2026-04-21 17:57 47.17481 154.60019 31870 ft 422 kts 228°
2026-04-21 17:58 47.14308 154.54578 31867 ft 421 kts 228°
2026-04-21 17:58 47.10494 154.48051 31862 ft 421 kts 228°
2026-04-21 17:59 47.06679 154.41540 31859 ft 420 kts 227°
2026-04-21 17:59 47.02866 154.35047 31855 ft 420 kts 227°
2026-04-21 18:00 46.99054 154.28572 31851 ft 419 kts 227°
2026-04-21 18:00 46.95240 154.22109 31847 ft 419 kts 227°
2026-04-21 18:01 46.91430 154.15666 31842 ft 418 kts 227°
2026-04-21 18:01 46.87626 154.09250 31838 ft 417 kts 227°
2026-04-21 18:02 46.83819 154.02845 31835 ft 417 kts 227°
2026-04-21 18:02 46.80015 153.96454 31831 ft 416 kts 226°
2026-04-21 18:03 46.76211 153.90084 31827 ft 416 kts 225°
2026-04-21 18:03 46.72411 153.83738 31823 ft 415 kts 226°
2026-04-21 18:04 46.68619 153.77416 31819 ft 414 kts 226°
2026-04-21 18:04 46.64821 153.71101 31816 ft 415 kts 225°
2026-04-21 18:05 46.61018 153.64790 31812 ft 415 kts 225°
2026-04-21 18:05 46.57233 153.58525 31809 ft 415 kts 225°
2026-04-21 18:06 46.53420 153.52227 31806 ft 415 kts 225°
2026-04-21 18:06 46.49609 153.45946 31801 ft 414 kts 225°
2026-04-21 18:07 46.45795 153.39676 31798 ft 414 kts 225°
2026-04-21 18:07 46.41980 153.33417 31796 ft 414 kts 225°
2026-04-21 18:08 46.38162 153.27169 31792 ft 414 kts 225°
2026-04-21 18:08 46.34344 153.20936 31788 ft 414 kts 225°
2026-04-21 18:09 46.30520 153.14706 31785 ft 414 kts 224°
2026-04-21 18:09 46.26692 153.08484 31782 ft 415 kts 224°
2026-04-21 18:10 46.22853 153.02258 31779 ft 415 kts 224°
2026-04-21 18:10 46.19000 152.96059 31775 ft 415 kts 224°
2026-04-21 18:11 46.15131 152.89893 31773 ft 415 kts 224°
2026-04-21 18:11 46.11263 152.83738 31769 ft 414 kts 223°
2026-04-21 18:12 46.07390 152.77585 31766 ft 415 kts 223°
2026-04-21 18:12 46.03511 152.71434 31764 ft 415 kts 223°
2026-04-21 18:13 45.99634 152.65299 31760 ft 414 kts 223°
2026-04-21 18:13 45.95797 152.59243 31756 ft 411 kts 223°
2026-04-21 18:14 45.90028 152.50165 31753 ft 410 kts 223°
2026-04-21 18:15 45.86178 152.44122 31751 ft 410 kts 223°
2026-04-21 18:15 45.82326 152.38090 31748 ft 410 kts 223°
2026-04-21 18:16 45.78463 152.32055 31745 ft 411 kts 223°
2026-04-21 18:16 45.74598 152.26027 31742 ft 411 kts 222°
2026-04-21 18:17 45.70726 152.20002 31740 ft 411 kts 222°
2026-04-21 18:17 45.66849 152.13985 31737 ft 411 kts 222°
2026-04-21 18:18 45.62974 152.07983 31736 ft 411 kts 222°
2026-04-21 18:18 45.59100 152.01995 31733 ft 410 kts 222°
2026-04-21 18:19 45.55216 151.96006 31721 ft 414 kts 222°
2026-04-21 18:19 45.51210 151.89857 31741 ft 433 kts 223°
2026-04-21 18:20 45.47068 151.83497 31739 ft 439 kts 223°
2026-04-21 18:20 45.42921 151.77131 31733 ft 438 kts 223°
2026-04-21 18:21 45.38772 151.70789 31731 ft 437 kts 223°
2026-04-21 18:21 45.34621 151.64462 31728 ft 437 kts 223°
2026-04-21 18:22 45.30494 151.58185 31726 ft 437 kts 223°
2026-04-21 18:22 45.26346 151.51889 31724 ft 436 kts 224°
2026-04-21 18:23 45.22201 151.45613 31721 ft 435 kts 224°
2026-04-21 18:23 45.18057 151.39354 31720 ft 435 kts 224°
2026-04-21 18:24 45.13911 151.33104 31718 ft 435 kts 224°
2026-04-21 18:24 45.09766 151.26871 31715 ft 434 kts 224°
2026-04-21 18:25 45.05614 151.20642 31714 ft 435 kts 224°
2026-04-21 18:25 45.01461 151.14425 31712 ft 434 kts 224°
2026-04-21 18:26 44.97306 151.08219 31710 ft 434 kts 224°
2026-04-21 18:26 44.93153 151.02030 31708 ft 434 kts 224°
2026-04-21 18:27 44.88994 150.95845 31706 ft 434 kts 225°
2026-04-21 18:27 44.84831 150.89670 31705 ft 434 kts 225°
2026-04-21 18:28 44.80671 150.83511 31702 ft 434 kts 225°
2026-04-21 18:28 44.76502 150.77354 31701 ft 435 kts 225°
2026-04-21 18:29 44.72326 150.71201 31700 ft 434 kts 225°
2026-04-21 18:29 44.68153 150.65065 31698 ft 434 kts 225°
2026-04-21 18:30 44.63975 150.58935 31697 ft 434 kts 225°
2026-04-21 18:30 44.59748 150.52749 31698 ft 443 kts 225°
2026-04-21 18:31 44.55476 150.46510 31695 ft 443 kts 226°
2026-04-21 18:31 44.51234 150.40327 31693 ft 443 kts 226°
2026-04-21 18:32 44.46961 150.34114 31691 ft 443 kts 226°
2026-04-21 18:32 44.42682 150.27907 31690 ft 443 kts 226°
2026-04-21 18:33 44.38400 150.21709 31689 ft 443 kts 226°
2026-04-21 18:33 44.34120 150.15527 31687 ft 442 kts 226°
2026-04-21 18:34 44.29834 150.09352 31686 ft 442 kts 226°
2026-04-21 18:34 44.25552 150.03196 31685 ft 442 kts 226°
2026-04-21 18:35 44.21963 149.98046 31684 ft 442 kts 226°
2026-04-21 18:35 44.16977 149.90907 31683 ft 442 kts 226°
2026-04-21 18:36 44.12684 149.84777 31682 ft 442 kts 226°
2026-04-21 18:36 44.08386 149.78652 31681 ft 442 kts 226°
2026-04-21 18:37 44.04087 149.72538 31680 ft 443 kts 226°
2026-04-21 18:37 43.99775 149.66421 31684 ft 443 kts 226°
2026-04-21 18:38 43.95467 149.60326 31700 ft 441 kts 227°
2026-04-21 18:38 43.91171 149.54256 31702 ft 441 kts 227°
2026-04-21 18:39 43.86869 149.48194 31702 ft 441 kts 227°
2026-04-21 18:39 43.82572 149.42151 31700 ft 440 kts 227°
2026-04-21 18:40 43.78275 149.36121 31699 ft 440 kts 227°
2026-04-21 18:40 43.74678 149.31083 31698 ft 439 kts 227°
2026-04-21 18:41 43.69690 149.24113 31698 ft 438 kts 227°
2026-04-21 18:41 43.65401 149.18134 31696 ft 438 kts 228°
2026-04-21 18:42 43.61112 149.12166 31712 ft 438 kts 228°
2026-04-21 18:42 43.56820 149.06208 31727 ft 437 kts 228°
2026-04-21 18:43 43.52535 149.00272 31729 ft 437 kts 228°
2026-04-21 18:43 43.48945 148.95310 31728 ft 436 kts 228°
2026-04-21 18:44 43.44661 148.89399 31727 ft 436 kts 228°
2026-04-21 18:44 43.40379 148.83503 31726 ft 435 kts 229°
2026-04-21 18:45 43.36128 148.77662 31725 ft 435 kts 229°
2026-04-21 18:45 43.31846 148.71791 31725 ft 435 kts 229°
2026-04-21 18:46 43.27560 148.65928 31724 ft 435 kts 229°
2026-04-21 18:46 43.23278 148.60081 31724 ft 434 kts 229°
2026-04-21 18:47 43.18996 148.54248 31722 ft 434 kts 229°
2026-04-21 18:47 43.14716 148.48429 31723 ft 433 kts 229°
2026-04-21 18:48 43.10440 148.42627 31722 ft 433 kts 229°
2026-04-21 18:48 43.06162 148.36835 31707 ft 432 kts 229°
2026-04-21 18:49 43.01893 148.31067 31696 ft 431 kts 229°
2026-04-21 18:49 42.98347 148.26286 31695 ft 431 kts 230°
2026-04-21 18:50 42.93371 148.19590 31694 ft 429 kts 230°
2026-04-21 18:50 42.89120 148.13882 31693 ft 428 kts 230°
2026-04-21 18:51 42.84908 148.08236 31693 ft 427 kts 230°
2026-04-21 18:51 42.80673 148.02574 31693 ft 426 kts 230°
2026-04-21 18:52 42.76450 147.96938 31711 ft 424 kts 231°
2026-04-21 18:52 42.72241 147.91333 31713 ft 423 kts 231°
2026-04-21 18:53 42.68032 147.85735 31714 ft 423 kts 231°
2026-04-21 18:53 42.63829 147.80159 31713 ft 422 kts 231°
2026-04-21 18:54 42.59637 147.74608 31712 ft 421 kts 231°
2026-04-21 18:54 42.55443 147.69066 31712 ft 420 kts 231°
2026-04-21 18:55 42.51956 147.64467 31712 ft 421 kts 231°
2026-04-21 18:55 42.47051 147.58010 31712 ft 420 kts 231°
2026-04-21 18:56 42.42853 147.52495 31712 ft 420 kts 231°
2026-04-21 18:56 42.38659 147.46997 31712 ft 420 kts 231°
2026-04-21 18:57 42.34466 147.41500 31712 ft 420 kts 231°
2026-04-21 18:57 42.30272 147.36011 31712 ft 420 kts 231°
2026-04-21 18:58 42.26079 147.30537 31713 ft 419 kts 231°
2026-04-21 18:58 42.21887 147.25073 31712 ft 419 kts 232°
2026-04-21 18:59 42.17713 147.19642 31713 ft 420 kts 232°
2026-04-21 18:59 42.13486 147.14155 31714 ft 419 kts 232°
2026-04-21 19:00 42.09283 147.08710 31714 ft 420 kts 232°
2026-04-21 19:00 42.05079 147.03273 31715 ft 419 kts 232°
2026-04-21 19:01 42.00881 146.97855 31716 ft 418 kts 232°
2026-04-21 19:01 41.96690 146.92467 31718 ft 412 kts 234°
2026-04-21 19:02 41.92630 146.87254 31716 ft 404 kts 234°
2026-04-21 19:02 41.88573 146.82024 31717 ft 404 kts 234°
2026-04-21 19:03 41.84505 146.76794 31719 ft 405 kts 234°
2026-04-21 19:03 41.80431 146.71575 31720 ft 405 kts 234°
2026-04-21 19:04 41.76360 146.66369 31721 ft 405 kts 234°
2026-04-21 19:04 41.72311 146.61206 31719 ft 398 kts 234°
2026-04-21 19:05 41.68315 146.56114 31723 ft 397 kts 234°
2026-04-21 19:05 41.64319 146.51022 31725 ft 396 kts 234°
2026-04-21 19:06 41.60323 146.45946 31727 ft 396 kts 234°
2026-04-21 19:06 41.56324 146.40879 31729 ft 396 kts 234°
2026-04-21 19:07 41.52323 146.35818 31730 ft 396 kts 234°
2026-04-21 19:07 41.48328 146.30770 31732 ft 396 kts 234°
2026-04-21 19:08 41.44358 146.25765 31734 ft 395 kts 234°
2026-04-21 19:08 41.40336 146.20704 31736 ft 395 kts 235°
2026-04-21 19:09 41.36371 146.15723 31738 ft 394 kts 235°
2026-04-21 19:09 41.32386 146.10724 31741 ft 395 kts 235°
2026-04-21 19:10 41.28352 146.05663 31744 ft 400 kts 234°
2026-04-21 19:10 41.24304 146.00615 31745 ft 398 kts 235°
2026-04-21 19:11 41.20276 145.95597 31793 ft 395 kts 235°
2026-04-21 19:11 41.16267 145.90603 31817 ft 395 kts 236°
2026-04-21 19:12 41.12943 145.86467 31819 ft 394 kts 236°
2026-04-21 19:12 41.08286 145.80691 31821 ft 391 kts 236°
2026-04-21 19:13 41.04325 145.75783 31822 ft 389 kts 236°
2026-04-21 19:13 41.00377 145.70901 31823 ft 388 kts 236°
2026-04-21 19:14 40.96442 145.66043 31824 ft 386 kts 236°
2026-04-21 19:14 40.92500 145.61179 31823 ft 388 kts 236°
2026-04-21 19:15 40.88526 145.56284 31831 ft 393 kts 236°
2026-04-21 19:15 40.84515 145.51366 31825 ft 390 kts 236°
2026-04-21 19:16 40.80561 145.46529 31827 ft 386 kts 237°
2026-04-21 19:16 40.76646 145.41729 31833 ft 387 kts 237°
2026-04-21 19:17 40.70741 145.34522 31850 ft 383 kts 237°
2026-04-21 19:17 40.66834 145.29759 31852 ft 381 kts 237°
2026-04-21 19:18 40.62949 145.25030 31856 ft 380 kts 237°
2026-04-21 19:18 40.59040 145.20267 31862 ft 386 kts 237°
2026-04-21 19:19 40.55086 145.15481 31859 ft 385 kts 236°
2026-04-21 19:19 40.51166 145.10745 31864 ft 383 kts 237°
2026-04-21 19:20 40.47251 145.06007 31866 ft 381 kts 237°
2026-04-21 19:20 40.43347 145.01291 31867 ft 381 kts 237°
2026-04-21 19:21 40.39449 144.96603 31875 ft 380 kts 237°
2026-04-21 19:21 40.35547 144.91903 31830 ft 381 kts 237°
2026-04-21 19:22 40.31616 144.87177 31816 ft 386 kts 237°
2026-04-21 19:22 40.27657 144.82435 31812 ft 384 kts 237°
2026-04-21 19:23 40.23737 144.77755 31815 ft 379 kts 237°
2026-04-21 19:23 40.19851 144.73106 31822 ft 380 kts 237°
2026-04-21 19:24 40.15942 144.68431 31826 ft 381 kts 237°
2026-04-21 19:24 40.12004 144.63743 31828 ft 382 kts 237°
2026-04-21 19:25 40.08103 144.59114 31830 ft 378 kts 237°
2026-04-21 19:25 40.04215 144.54491 31826 ft 378 kts 237°
2026-04-21 19:26 40.00345 144.49901 31815 ft 378 kts 237°
2026-04-21 19:26 39.96438 144.45279 31814 ft 379 kts 237°
2026-04-21 19:27 39.92538 144.40670 31818 ft 377 kts 237°
2026-04-21 19:27 39.88667 144.36109 31828 ft 376 kts 238°
2026-04-21 19:28 39.84777 144.31515 31829 ft 376 kts 237°
2026-04-21 19:28 39.80916 144.26992 31858 ft 372 kts 237°
2026-04-21 19:29 39.77086 144.22491 31864 ft 371 kts 237°
2026-04-21 19:29 39.73899 144.18745 31867 ft 371 kts 237°
2026-04-21 19:30 39.70051 144.14242 31882 ft 372 kts 237°
2026-04-21 19:30 39.66191 144.09728 31887 ft 376 kts 237°
2026-04-21 19:31 39.62270 144.05146 31883 ft 379 kts 237°
2026-04-21 19:31 39.58372 144.00621 31890 ft 375 kts 237°
2026-04-21 19:32 39.54496 143.96102 31892 ft 377 kts 237°
2026-04-21 19:32 39.50600 143.91576 31889 ft 374 kts 237°
2026-04-21 19:33 39.46710 143.87065 31897 ft 378 kts 237°
2026-04-21 19:33 39.42786 143.82521 31904 ft 377 kts 237°
2026-04-21 19:34 39.38880 143.78012 31959 ft 377 kts 237°
2026-04-21 19:34 39.34947 143.73459 31970 ft 381 kts 237°
2026-04-21 19:35 39.29006 143.66627 31970 ft 380 kts 236°
2026-04-21 19:36 39.25041 143.62065 31974 ft 381 kts 236°
2026-04-21 19:36 39.21092 143.57535 31976 ft 380 kts 236°
2026-04-21 19:37 39.17159 143.53030 31977 ft 376 kts 236°
2026-04-21 19:37 39.13245 143.48547 31980 ft 377 kts 236°
2026-04-21 19:38 39.09322 143.44062 31981 ft 377 kts 236°
2026-04-21 19:38 39.05392 143.39579 31984 ft 377 kts 236°
2026-04-21 19:39 39.01466 143.35110 31984 ft 377 kts 236°
2026-04-21 19:39 38.97535 143.30638 31986 ft 377 kts 236°
2026-04-21 19:40 38.93625 143.26197 31988 ft 377 kts 235°
2026-04-21 19:40 38.89741 143.21694 31989 ft 374 kts 237°
2026-04-21 19:41 38.86116 143.16953 31983 ft 371 kts 239°
2026-04-21 19:41 38.82524 143.12195 31982 ft 372 kts 239°
2026-04-21 19:42 38.78891 143.07455 31984 ft 373 kts 238°
2026-04-21 19:42 38.75250 143.02719 31985 ft 373 kts 238°
2026-04-21 19:43 38.71610 142.97988 31987 ft 372 kts 238°
2026-04-21 19:43 38.67974 142.93265 31989 ft 373 kts 238°
2026-04-21 19:44 38.64329 142.88538 31991 ft 373 kts 238°
2026-04-21 19:44 38.60676 142.83811 31992 ft 374 kts 238°
2026-04-21 19:45 38.57042 142.79113 31994 ft 374 kts 238°
2026-04-21 19:45 38.53379 142.74387 31995 ft 374 kts 238°
2026-04-21 19:46 38.49708 142.69655 31997 ft 375 kts 238°
2026-04-21 19:46 38.46032 142.64927 31999 ft 375 kts 238°
2026-04-21 19:47 38.42351 142.60198 32000 ft 376 kts 238°
2026-04-21 19:47 38.38663 142.55468 32002 ft 375 kts 237°
2026-04-21 19:48 38.34979 142.50751 32003 ft 376 kts 237°
2026-04-21 19:48 38.31296 142.46030 32005 ft 375 kts 238°
2026-04-21 19:49 38.27648 142.41269 32007 ft 376 kts 238°
2026-04-21 19:49 38.24000 142.36505 32009 ft 376 kts 238°
2026-04-21 19:50 38.20962 142.32550 32010 ft 376 kts 238°
2026-04-21 19:50 38.16679 142.26988 32012 ft 377 kts 238°
2026-04-21 19:51 38.13011 142.22230 32014 ft 377 kts 237°
2026-04-21 19:51 38.09339 142.17474 32035 ft 377 kts 237°
2026-04-21 19:52 38.05656 142.12711 32047 ft 378 kts 237°
2026-04-21 19:52 38.01972 142.07956 32049 ft 378 kts 237°
2026-04-21 19:53 37.98283 142.03200 32050 ft 378 kts 237°
2026-04-21 19:53 37.94597 141.98457 32050 ft 378 kts 237°
2026-04-21 19:54 37.90910 141.93717 32051 ft 378 kts 237°
2026-04-21 19:54 37.87214 141.88974 32052 ft 378 kts 237°
2026-04-21 19:55 37.83519 141.84238 32052 ft 379 kts 237°
2026-04-21 19:55 37.79815 141.79499 32053 ft 379 kts 237°
2026-04-21 19:56 37.76105 141.74761 32054 ft 379 kts 237°
2026-04-21 19:56 37.72411 141.70049 32055 ft 380 kts 237°
2026-04-21 19:57 37.68687 141.65305 32057 ft 381 kts 237°
2026-04-21 19:57 37.64953 141.60556 32058 ft 381 kts 237°
2026-04-21 19:58 37.61215 141.55811 32059 ft 381 kts 236°
2026-04-21 19:58 37.57476 141.51070 32059 ft 382 kts 236°
2026-04-21 19:59 37.53720 141.46314 32062 ft 383 kts 236°
2026-04-21 19:59 37.49950 141.41550 32064 ft 384 kts 236°
2026-04-21 20:00 37.46174 141.36784 32066 ft 385 kts 236°
2026-04-21 20:00 37.42384 141.32008 32066 ft 386 kts 236°
2026-04-21 20:01 37.38585 141.27228 32068 ft 387 kts 236°
2026-04-21 20:01 37.34782 141.22452 32070 ft 386 kts 236°
2026-04-21 20:02 37.30983 141.17685 32074 ft 386 kts 236°
2026-04-21 20:02 37.27173 141.12912 32077 ft 387 kts 235°
2026-04-21 20:03 37.23355 141.08137 32081 ft 388 kts 235°
2026-04-21 20:03 37.19526 141.03356 32091 ft 388 kts 235°
2026-04-21 20:04 37.15715 140.98600 32100 ft 389 kts 236°
2026-04-21 20:04 37.12171 140.93497 32103 ft 384 kts 240°
2026-04-21 20:05 37.08890 140.88248 32100 ft 382 kts 240°
2026-04-21 20:05 37.05590 140.83070 32100 ft 384 kts 240°
2026-04-21 20:06 37.02235 140.77868 32100 ft 384 kts 240°
2026-04-21 20:06 36.98876 140.72662 32101 ft 384 kts 240°
2026-04-21 20:07 36.95519 140.67461 32102 ft 384 kts 240°
2026-04-21 20:07 36.92698 140.63097 32102 ft 385 kts 239°
2026-04-21 20:08 36.88780 140.57046 32103 ft 386 kts 239°
2026-04-21 20:08 36.85399 140.51834 32104 ft 386 kts 239°
2026-04-21 20:09 36.82008 140.46614 32105 ft 387 kts 239°
2026-04-21 20:09 36.78609 140.41390 32107 ft 388 kts 239°
2026-04-21 20:10 36.75205 140.36163 32112 ft 389 kts 239°
2026-04-21 20:10 36.72092 140.30695 32115 ft 385 kts 244°
2026-04-21 20:11 36.69216 140.25072 32116 ft 384 kts 244°
2026-04-21 20:11 36.66299 140.19480 32118 ft 386 kts 244°
2026-04-21 20:12 36.63350 140.13896 32119 ft 386 kts 244°
2026-04-21 20:12 36.60893 140.09246 32121 ft 387 kts 244°
2026-04-21 20:13 36.57434 140.02700 32121 ft 388 kts 244°
2026-04-21 20:13 36.54467 139.97096 32127 ft 388 kts 243°
2026-04-21 20:14 36.51493 139.91489 32131 ft 389 kts 243°
2026-04-21 20:14 36.49014 139.86828 32131 ft 389 kts 243°
2026-04-21 20:15 36.45872 139.81330 32135 ft 391 kts 241°
2026-04-21 20:15 36.42117 139.75002 32137 ft 391 kts 241°
2026-04-21 20:16 36.38909 139.69547 32139 ft 391 kts 241°
2026-04-21 20:16 36.35723 139.64081 32142 ft 391 kts 241°
2026-04-21 20:17 36.33055 139.59505 32145 ft 391 kts 241°
2026-04-21 20:17 36.29864 139.54047 32149 ft 391 kts 241°
2026-04-21 20:18 36.26646 139.48553 32152 ft 391 kts 241°
2026-04-21 20:18 36.23450 139.43106 32154 ft 391 kts 241°
2026-04-21 20:19 36.20245 139.37650 32159 ft 392 kts 241°
2026-04-21 20:19 36.17048 139.32182 32162 ft 391 kts 243°
2026-04-21 20:20 36.14484 139.26322 32160 ft 384 kts 251°
2026-04-21 20:20 36.12353 139.20293 32157 ft 382 kts 251°
2026-04-21 20:21 36.10163 139.14309 32158 ft 382 kts 250°
2026-04-21 20:21 36.07929 139.08345 32157 ft 383 kts 250°
2026-04-21 20:22 36.05691 139.02366 32156 ft 383 kts 250°
2026-04-21 20:22 36.02335 138.93406 32151 ft 383 kts 250°
2026-04-21 20:23 36.00097 138.87444 32147 ft 383 kts 250°
2026-04-21 20:23 35.97841 138.81440 32144 ft 389 kts 250°
2026-04-21 20:24 35.95549 138.75363 32138 ft 391 kts 250°
2026-04-21 20:24 35.93252 138.69286 32131 ft 391 kts 250°
2026-04-21 20:25 35.90955 138.63215 32124 ft 391 kts 250°
2026-04-21 20:25 35.88651 138.57142 32118 ft 390 kts 250°
2026-04-21 20:26 35.86357 138.51127 32111 ft 390 kts 249°
2026-04-21 20:26 35.84048 138.45082 32105 ft 390 kts 249°
2026-04-21 20:27 35.81738 138.39045 32099 ft 390 kts 249°
2026-04-21 20:27 35.79424 138.33007 32094 ft 390 kts 249°
2026-04-21 20:28 35.77107 138.26978 32090 ft 389 kts 249°
2026-04-21 20:28 35.74790 138.20960 32088 ft 389 kts 249°
2026-04-21 20:29 35.72470 138.14943 32089 ft 389 kts 249°
2026-04-21 20:29 35.70148 138.08931 32087 ft 389 kts 249°
2026-04-21 20:30 35.67813 138.02931 32084 ft 390 kts 248°
2026-04-21 20:30 35.64531 137.97540 32092 ft 399 kts 237°
2026-04-21 20:31 35.60827 137.92411 32093 ft 402 kts 236°
2026-04-21 20:31 35.57087 137.87304 32089 ft 402 kts 235°
2026-04-21 20:32 35.53339 137.82199 32091 ft 402 kts 235°
2026-04-21 20:32 35.49588 137.77097 32095 ft 403 kts 235°
2026-04-21 20:33 35.45829 137.71991 32100 ft 403 kts 235°
2026-04-21 20:33 35.42064 137.66885 32104 ft 405 kts 235°
2026-04-21 20:34 35.38283 137.61764 32108 ft 405 kts 235°
2026-04-21 20:34 35.34496 137.56642 32112 ft 406 kts 235°
2026-04-21 20:35 35.30702 137.51517 32117 ft 407 kts 235°
2026-04-21 20:35 35.26898 137.46387 32121 ft 407 kts 235°
2026-04-21 20:36 35.23112 137.41287 32125 ft 407 kts 234°
2026-04-21 20:36 35.19299 137.36159 32129 ft 408 kts 234°
2026-04-21 20:37 35.15481 137.31031 32133 ft 408 kts 234°
2026-04-21 20:37 35.11653 137.25895 32138 ft 409 kts 234°
2026-04-21 20:38 35.07820 137.20760 32141 ft 409 kts 234°
2026-04-21 20:38 35.03982 137.15622 32146 ft 410 kts 234°
2026-04-21 20:39 35.00229 137.10403 32147 ft 407 kts 240°
2026-04-21 20:39 34.97238 137.04600 32154 ft 402 kts 244°
2026-04-21 20:40 34.94446 136.98704 32155 ft 401 kts 245°
2026-04-21 20:40 34.91670 136.92798 32159 ft 402 kts 245°
2026-04-21 20:41 34.88891 136.86890 32160 ft 402 kts 245°
2026-04-21 20:41 34.85534 136.81401 32153 ft 412 kts 230°
2026-04-21 20:42 34.83200 136.79322 32157 ft 423 kts 218°
2026-04-21 20:42 34.80510 136.77853 32168 ft 435 kts 209°
2026-04-21 20:42 34.74598 136.75724 32165 ft 448 kts 205°
2026-04-21 20:43 34.68604 136.73633 32162 ft 448 kts 206°
2026-04-21 20:43 34.62679 136.71358 32161 ft 446 kts 207°
2026-04-21 20:44 34.56770 136.69039 32160 ft 446 kts 207°
2026-04-21 20:44 34.50849 136.66739 32160 ft 447 kts 207°
2026-04-21 20:45 34.44921 136.64450 32159 ft 447 kts 206°
2026-04-21 20:45 34.38983 136.62160 32156 ft 448 kts 206°
2026-04-21 20:46 34.33044 136.59868 32153 ft 448 kts 207°
2026-04-21 20:46 34.27593 136.56505 32157 ft 434 kts 222°
2026-04-21 20:47 34.22913 136.52033 32151 ft 426 kts 227°
2026-04-21 20:47 34.18326 136.47507 32148 ft 426 kts 225°
2026-04-21 20:48 34.13636 136.43098 32147 ft 428 kts 225°
2026-04-21 20:48 34.08918 136.38716 32145 ft 428 kts 224°
2026-04-21 20:49 34.04199 136.34322 32142 ft 428 kts 225°
2026-04-21 20:49 33.99478 136.29924 32141 ft 430 kts 224°
2026-04-21 20:50 33.94741 136.25519 32139 ft 430 kts 224°
2026-04-21 20:50 33.90032 136.21148 32136 ft 430 kts 224°
2026-04-21 20:51 33.85266 136.16730 32133 ft 430 kts 224°
2026-04-21 20:51 33.80555 136.12369 32131 ft 430 kts 224°
2026-04-21 20:52 33.75816 136.07989 32128 ft 430 kts 224°
2026-04-21 20:52 33.71071 136.03610 32125 ft 430 kts 224°
2026-04-21 20:53 33.66327 135.99238 32123 ft 430 kts 224°
2026-04-21 20:53 33.61583 135.94872 32113 ft 430 kts 224°
2026-04-21 20:54 33.56833 135.90507 32110 ft 430 kts 224°
2026-04-21 20:54 33.52073 135.86139 32109 ft 431 kts 224°
2026-04-21 20:55 33.47311 135.81775 32107 ft 431 kts 224°
2026-04-21 20:55 33.42595 135.77348 32107 ft 430 kts 225°
2026-04-21 20:56 33.38014 135.72754 32106 ft 429 kts 226°
2026-04-21 20:56 33.33444 135.68160 32106 ft 429 kts 226°
2026-04-21 20:57 33.28854 135.63594 32105 ft 430 kts 225°
2026-04-21 20:57 33.24283 135.59062 32105 ft 430 kts 225°
2026-04-21 20:58 33.19678 135.54498 32106 ft 430 kts 225°
2026-04-21 20:58 33.15065 135.49932 32106 ft 431 kts 225°
2026-04-21 20:59 33.10455 135.45375 32106 ft 431 kts 225°
2026-04-21 20:59 33.05835 135.40814 32107 ft 432 kts 225°
2026-04-21 21:00 33.01953 135.36987 32109 ft 432 kts 225°
2026-04-21 21:00 32.97326 135.32431 32110 ft 432 kts 225°
2026-04-21 21:01 32.92723 135.27907 32109 ft 432 kts 225°
2026-04-21 21:01 32.88094 135.23362 32109 ft 432 kts 225°
2026-04-21 21:02 32.83456 135.18816 32110 ft 432 kts 225°
2026-04-21 21:02 32.78817 135.14273 32110 ft 432 kts 224°
2026-04-21 21:03 32.74319 135.09555 32111 ft 430 kts 229°
2026-04-21 21:03 32.70101 135.04528 32111 ft 429 kts 230°
2026-04-21 21:04 32.65886 134.99499 32110 ft 430 kts 229°
2026-04-21 21:04 32.61626 134.94508 32112 ft 430 kts 229°
2026-04-21 21:05 32.57357 134.89526 32112 ft 430 kts 229°
2026-04-21 21:05 32.53093 134.84549 32113 ft 431 kts 229°
2026-04-21 21:06 32.48821 134.79567 32114 ft 431 kts 229°
2026-04-21 21:06 32.44574 134.74621 32115 ft 431 kts 228°
2026-04-21 21:07 32.40289 134.69640 32115 ft 432 kts 228°
2026-04-21 21:07 32.35997 134.64655 32115 ft 432 kts 228°
2026-04-21 21:08 32.31702 134.59675 32116 ft 433 kts 228°
2026-04-21 21:08 32.27401 134.54695 32115 ft 433 kts 228°
2026-04-21 21:09 32.23093 134.49714 32116 ft 434 kts 228°
2026-04-21 21:09 32.18782 134.44737 32115 ft 434 kts 228°
2026-04-21 21:10 32.14465 134.39759 32116 ft 435 kts 228°
2026-04-21 21:10 32.10134 134.34772 32117 ft 435 kts 227°
2026-04-21 21:11 32.05806 134.29796 32116 ft 434 kts 227°
2026-04-21 21:11 32.01474 134.24822 32116 ft 435 kts 227°
2026-04-21 21:12 31.97133 134.19845 32116 ft 435 kts 227°
2026-04-21 21:12 31.92793 134.14876 32115 ft 435 kts 227°
2026-04-21 21:13 31.88479 134.09944 32116 ft 435 kts 227°
2026-04-21 21:13 31.84135 134.04983 32125 ft 435 kts 227°
2026-04-21 21:14 31.79788 134.00026 32115 ft 435 kts 227°
2026-04-21 21:14 31.75436 133.95071 32112 ft 435 kts 227°
2026-04-21 21:15 31.71086 133.90124 32111 ft 435 kts 227°
2026-04-21 21:15 31.66731 133.85179 32110 ft 436 kts 227°
2026-04-21 21:16 31.62369 133.80233 32110 ft 436 kts 227°
2026-04-21 21:16 31.58004 133.75290 32109 ft 436 kts 227°
2026-04-21 21:17 31.53637 133.70351 32108 ft 436 kts 227°
2026-04-21 21:17 31.49265 133.65413 32107 ft 437 kts 227°
2026-04-21 21:18 31.44892 133.60482 32106 ft 436 kts 227°
2026-04-21 21:18 31.40514 133.55552 32105 ft 436 kts 227°
2026-04-21 21:19 31.36131 133.50621 32103 ft 437 kts 227°
2026-04-21 21:19 31.31746 133.45696 32102 ft 437 kts 227°
2026-04-21 21:20 31.27354 133.40771 32102 ft 437 kts 227°
2026-04-21 21:20 31.22985 133.35877 32102 ft 438 kts 227°
2026-04-21 21:21 31.18555 133.30921 32102 ft 438 kts 227°
2026-04-21 21:21 31.14152 133.26003 32102 ft 438 kts 227°
2026-04-21 21:22 31.09747 133.21089 32102 ft 438 kts 226°
2026-04-21 21:22 31.05339 133.16177 32102 ft 438 kts 226°
2026-04-21 21:23 31.00921 133.11262 32102 ft 439 kts 226°
2026-04-21 21:23 30.96503 133.06353 32102 ft 439 kts 226°
2026-04-21 21:24 30.92112 133.01482 32102 ft 439 kts 226°
2026-04-21 21:24 30.87685 132.96576 32102 ft 439 kts 226°
2026-04-21 21:25 30.83264 132.91684 32102 ft 439 kts 226°
2026-04-21 21:25 30.78828 132.86781 32102 ft 439 kts 226°
2026-04-21 21:26 30.74399 132.81893 32102 ft 439 kts 226°
2026-04-21 21:26 30.69975 132.77018 32102 ft 438 kts 226°
2026-04-21 21:27 30.65546 132.72143 32102 ft 438 kts 226°
2026-04-21 21:27 30.61118 132.67275 32102 ft 438 kts 226°
2026-04-21 21:28 30.56688 132.62411 32103 ft 438 kts 226°
2026-04-21 21:29 30.50039 132.55124 32094 ft 438 kts 226°
2026-04-21 21:29 30.45605 132.50273 32094 ft 439 kts 226°
2026-04-21 21:30 30.41171 132.45427 32094 ft 438 kts 226°
2026-04-21 21:30 30.36732 132.40583 32094 ft 438 kts 226°
2026-04-21 21:31 30.32297 132.35749 32094 ft 438 kts 226°
2026-04-21 21:31 30.27856 132.30915 32094 ft 438 kts 226°
2026-04-21 21:32 30.23420 132.26094 32094 ft 438 kts 226°
2026-04-21 21:32 30.18979 132.21272 32094 ft 438 kts 226°
2026-04-21 21:33 30.14531 132.16450 32094 ft 438 kts 226°
2026-04-21 21:33 30.10088 132.11638 32094 ft 438 kts 226°
2026-04-21 21:34 30.05640 132.06828 32094 ft 438 kts 226°
2026-04-21 21:34 30.01194 132.02026 32094 ft 438 kts 226°
2026-04-21 21:35 29.96745 131.97227 32093 ft 438 kts 226°
2026-04-21 21:35 29.92293 131.92432 32093 ft 438 kts 226°
2026-04-21 21:36 29.87873 131.87676 32093 ft 438 kts 226°
2026-04-21 21:36 29.83388 131.82857 32092 ft 438 kts 226°
2026-04-21 21:37 29.79173 131.77818 32093 ft 436 kts 231°
2026-04-21 21:37 29.75294 131.72448 32091 ft 436 kts 233°
2026-04-21 21:38 29.71412 131.67091 32091 ft 436 kts 232°
2026-04-21 21:38 29.67478 131.61778 32090 ft 436 kts 232°
2026-04-21 21:39 29.63556 131.56501 32090 ft 437 kts 232°
2026-04-21 21:39 29.59608 131.51186 32089 ft 437 kts 232°
2026-04-21 21:40 29.55656 131.45868 32088 ft 438 kts 232°
2026-04-21 21:40 29.51697 131.40550 32088 ft 438 kts 232°
2026-04-21 21:41 29.47733 131.35232 32087 ft 439 kts 232°
2026-04-21 21:41 29.43763 131.29912 32086 ft 439 kts 232°
2026-04-21 21:42 29.39789 131.24595 32084 ft 439 kts 232°
2026-04-21 21:42 29.35808 131.19276 32083 ft 440 kts 232°
2026-04-21 21:43 29.31820 131.13953 32082 ft 440 kts 232°
2026-04-21 21:43 29.27826 131.08629 32079 ft 440 kts 232°
2026-04-21 21:44 29.23832 131.03314 32078 ft 440 kts 233°
2026-04-21 21:44 29.19834 130.97999 32076 ft 441 kts 233°
2026-04-21 21:45 29.15829 130.92681 32074 ft 441 kts 233°
2026-04-21 21:45 29.11814 130.87359 32072 ft 442 kts 233°
2026-04-21 21:46 29.08476 130.82938 32070 ft 442 kts 233°
2026-04-21 21:46 29.04454 130.77618 32068 ft 442 kts 233°
2026-04-21 21:47 29.00428 130.72300 32066 ft 442 kts 233°
2026-04-21 21:47 28.96403 130.66989 32064 ft 443 kts 233°
2026-04-21 21:48 28.92365 130.61669 32061 ft 443 kts 233°
2026-04-21 21:48 28.88329 130.56359 32059 ft 443 kts 233°
2026-04-21 21:49 28.84287 130.51046 32057 ft 443 kts 233°
2026-04-21 21:49 28.80247 130.45744 32055 ft 443 kts 233°
2026-04-21 21:50 28.76198 130.40438 32053 ft 444 kts 233°
2026-04-21 21:50 28.72183 130.35181 32051 ft 444 kts 233°
2026-04-21 21:51 28.68153 130.29913 32050 ft 444 kts 233°
2026-04-21 21:51 28.64097 130.24617 32048 ft 444 kts 233°
2026-04-21 21:52 28.60038 130.19323 32047 ft 444 kts 233°
2026-04-21 21:52 28.55974 130.14031 32046 ft 444 kts 232°
2026-04-21 21:53 28.51912 130.08747 32045 ft 444 kts 232°
2026-04-21 21:53 28.47843 130.03461 32045 ft 444 kts 232°
2026-04-21 21:54 28.43769 129.98175 32044 ft 445 kts 232°
2026-04-21 21:54 28.39685 129.92883 32042 ft 445 kts 232°
2026-04-21 21:55 28.35598 129.87594 32039 ft 445 kts 232°
2026-04-21 21:55 28.31513 129.82314 32039 ft 445 kts 232°
2026-04-21 21:56 28.27424 129.77036 32034 ft 445 kts 232°
2026-04-21 21:56 28.23332 129.71760 32030 ft 445 kts 232°
2026-04-21 21:57 28.19237 129.66487 32018 ft 445 kts 232°
2026-04-21 21:57 28.15140 129.61218 32015 ft 446 kts 232°
2026-04-21 21:58 28.11068 129.55989 32014 ft 445 kts 232°
2026-04-21 21:58 28.06964 129.50724 32015 ft 445 kts 232°
2026-04-21 21:59 28.02864 129.45471 32015 ft 446 kts 232°
2026-04-21 21:59 27.98762 129.40222 32014 ft 445 kts 232°
2026-04-21 22:00 27.94647 129.34963 32016 ft 447 kts 232°
2026-04-21 22:00 27.90522 129.29699 32016 ft 447 kts 232°
2026-04-21 22:01 27.86394 129.24436 32016 ft 448 kts 232°
2026-04-21 22:01 27.82262 129.19175 32016 ft 448 kts 232°
2026-04-21 22:02 27.78125 129.13915 32016 ft 448 kts 232°
2026-04-21 22:02 27.73981 129.08653 32016 ft 448 kts 232°
2026-04-21 22:03 27.69839 129.03404 32015 ft 448 kts 232°
2026-04-21 22:03 27.65692 128.98154 32015 ft 448 kts 232°
2026-04-21 22:04 27.61540 128.92904 32015 ft 448 kts 232°
2026-04-21 22:04 27.57384 128.87655 32015 ft 449 kts 231°
2026-04-21 22:05 27.53246 128.82436 32014 ft 449 kts 231°
2026-04-21 22:05 27.49080 128.77187 32014 ft 450 kts 231°
2026-04-21 22:06 27.44924 128.71960 31939 ft 445 kts 231°
2026-04-21 22:06 27.42821 128.69387 31236 ft 447 kts 229°
2026-04-21 22:06 27.40596 128.66931 30535 ft 448 kts 226°
2026-04-21 22:06 27.38306 128.64567 29956 ft 445 kts 225°
2026-04-21 22:07 27.36016 128.62254 29429 ft 440 kts 225°
2026-04-21 22:07 27.33751 128.59957 28847 ft 436 kts 225°
2026-04-21 22:07 27.31518 128.57668 28254 ft 433 kts 225°
2026-04-21 22:07 27.29312 128.55383 27708 ft 428 kts 225°
2026-04-21 22:08 27.27135 128.53119 27098 ft 426 kts 225°
2026-04-21 22:08 27.24972 128.50870 26548 ft 422 kts 225°
2026-04-21 22:08 27.22831 128.48646 26010 ft 417 kts 225°
2026-04-21 22:08 27.20703 128.46439 25436 ft 414 kts 225°
2026-04-21 22:09 27.18592 128.44252 24897 ft 411 kts 225°
2026-04-21 22:09 27.16501 128.42088 24376 ft 407 kts 225°
2026-04-21 22:09 27.14426 128.39943 23834 ft 404 kts 225°
2026-04-21 22:09 27.12371 128.37818 23309 ft 400 kts 225°
2026-04-21 22:10 27.10329 128.35708 22773 ft 398 kts 225°
2026-04-21 22:10 27.08302 128.33613 22246 ft 395 kts 225°
2026-04-21 22:10 27.06289 128.31535 21713 ft 392 kts 225°
2026-04-21 22:10 27.04290 128.29473 21187 ft 389 kts 224°
2026-04-21 22:11 27.02304 128.27429 20677 ft 386 kts 224°
2026-04-21 22:11 27.00333 128.25401 20168 ft 383 kts 224°
2026-04-21 22:11 26.98378 128.23389 19654 ft 380 kts 224°
2026-04-21 22:11 26.96438 128.21391 19139 ft 378 kts 224°
2026-04-21 22:12 26.94508 128.19405 18634 ft 375 kts 224°
2026-04-21 22:12 26.92596 128.17436 18142 ft 372 kts 224°
2026-04-21 22:12 26.90696 128.15482 17649 ft 369 kts 224°
2026-04-21 22:12 26.88813 128.13546 17156 ft 367 kts 224°
2026-04-21 22:13 26.86939 128.11622 16666 ft 364 kts 224°
2026-04-21 22:13 26.85077 128.09710 16173 ft 362 kts 224°
2026-04-21 22:13 26.83226 128.07810 15668 ft 360 kts 224°
2026-04-21 22:13 26.81385 128.05921 15195 ft 358 kts 224°
2026-04-21 22:14 26.79554 128.04044 14720 ft 356 kts 224°
2026-04-21 22:14 26.77759 128.02204 14254 ft 353 kts 224°
2026-04-21 22:14 26.75929 128.00330 13789 ft 351 kts 224°
2026-04-21 22:14 26.74157 127.98515 13322 ft 349 kts 225°
2026-04-21 22:15 26.72368 127.96684 12858 ft 347 kts 225°
2026-04-21 22:15 26.70590 127.94864 12400 ft 346 kts 225°
2026-04-21 22:15 26.68821 127.93056 11953 ft 344 kts 225°
2026-04-21 22:15 26.67062 127.91257 11516 ft 342 kts 224°
2026-04-21 22:16 26.65309 127.89465 11087 ft 341 kts 224°
2026-04-21 22:16 26.63558 127.87676 10653 ft 341 kts 224°
2026-04-21 22:16 26.61813 127.85891 10261 ft 338 kts 223°
2026-04-21 22:16 26.60108 127.84153 10166 ft 325 kts 223°
2026-04-21 22:17 26.58474 127.82489 10151 ft 311 kts 223°
2026-04-21 22:17 26.56907 127.80892 10096 ft 298 kts 223°
2026-04-21 22:17 26.55401 127.79358 10000 ft 288 kts 223°
2026-04-21 22:17 26.53938 127.77865 9809 ft 283 kts 223°
2026-04-21 22:18 26.52477 127.76375 9382 ft 286 kts 223°
2026-04-21 22:18 26.50994 127.74864 8921 ft 290 kts 222°
2026-04-21 22:18 26.49499 127.73343 8528 ft 291 kts 222°
2026-04-21 22:18 26.47998 127.71817 8149 ft 292 kts 222°
2026-04-21 22:19 26.46496 127.70290 7775 ft 292 kts 222°
2026-04-21 22:19 26.44991 127.68760 7405 ft 292 kts 222°
2026-04-21 22:19 26.43490 127.67235 7027 ft 292 kts 221°
2026-04-21 22:19 26.41995 127.65715 6669 ft 290 kts 221°
2026-04-21 22:20 26.40510 127.64208 6292 ft 287 kts 221°
2026-04-21 22:20 26.39048 127.62723 5941 ft 282 kts 221°
2026-04-21 22:20 26.37611 127.61265 5596 ft 277 kts 221°
2026-04-21 22:20 26.36197 127.59830 5258 ft 272 kts 221°
2026-04-21 22:21 26.34807 127.58420 4927 ft 268 kts 221°
2026-04-21 22:21 26.33439 127.57034 4602 ft 264 kts 220°
2026-04-21 22:21 26.32107 127.55683 4275 ft 262 kts 220°
2026-04-21 22:21 26.30754 127.54327 3924 ft 261 kts 218°
2026-04-21 22:22 26.29136 127.53399 3322 ft 264 kts 191°
2026-04-21 22:22 26.27344 127.53443 3176 ft 255 kts 163°
2026-04-21 22:22 26.25832 127.54325 3150 ft 238 kts 143°
2026-04-21 22:22 26.24598 127.55468 3084 ft 224 kts 138°
2026-04-21 22:23 26.23534 127.56681 2986 ft 218 kts 123°
2026-04-21 22:23 26.23097 127.58277 2927 ft 219 kts 92°
2026-04-21 22:23 26.23388 127.59934 2827 ft 222 kts 65°
2026-04-21 22:23 26.24324 127.61307 2748 ft 224 kts 48°
2026-04-21 22:24 26.25361 127.62577 2655 ft 216 kts 51°
2026-04-21 22:24 26.26319 127.63824 2463 ft 208 kts 51°
2026-04-21 22:24 26.27209 127.65009 2300 ft 190 kts 52°
2026-04-21 22:24 26.28016 127.66095 2053 ft 175 kts 52°
2026-04-21 22:25 26.28775 127.67127 1883 ft 172 kts 53°
2026-04-21 22:25 26.29530 127.68161 1657 ft 171 kts 53°
2026-04-21 22:25 26.30278 127.69188 1431 ft 171 kts 53°
2026-04-21 22:25 26.31029 127.70217 1217 ft 171 kts 53°
2026-04-21 22:26 26.31779 127.71245 1005 ft 171 kts 53°
2026-04-21 22:26 26.32531 127.72270 797 ft 169 kts 53°
2026-04-21 22:26 26.33261 127.73245 580 ft 158 kts 52°
2026-04-21 22:26 26.33941 127.74173 388 ft 152 kts 53°
2026-04-21 22:27 26.34600 127.75090 208 ft 151 kts 53°
2026-04-21 22:27 26.35216 127.75935 158 ft 128 kts 53°
2026-04-21 22:27 26.35696 127.76590 158 ft 85 kts 50°
2026-04-21 22:27 26.36011 127.77018 158 ft 61 kts 51°
2026-04-21 22:28 26.36205 127.77285 158 ft 27 kts 50°
2026-04-21 22:28 26.36316 127.77362 158 ft 13 kts 355°
2026-04-21 22:28 26.36386 127.77318 158 ft 10 kts 319°
2026-04-21 22:28 26.36432 127.77275 158 ft 7 kts 320°
2026-04-21 22:29 26.36464 127.77246 158 ft 7 kts 320°
2026-04-21 22:29 26.36512 127.77198 158 ft 9 kts 309°
2026-04-21 22:29 26.36513 127.77144 158 ft 6 kts 246°
2026-04-21 22:29 26.36491 127.77104 158 ft 9 kts 236°
2026-04-21 22:30 26.36443 127.77033 158 ft 12 kts 231°
2026-04-21 22:30 26.36397 127.76970 158 ft 10 kts 230°
2026-04-21 22:30 26.36342 127.76896 158 ft 16 kts 230°
2026-04-21 22:30 26.36272 127.76799 158 ft 15 kts 231°
2026-04-21 22:31 26.36212 127.76716 158 ft 12 kts 231°
2026-04-21 22:31 26.36166 127.76653 158 ft 9 kts 231°
2026-04-21 22:31 26.36132 127.76607 158 ft 7 kts 231°
2026-04-21 22:31 26.36085 127.76546 158 ft 12 kts 218°
2026-04-21 22:32 26.36018 127.76506 158 ft 10 kts 204°
2026-04-21 22:32 26.35966 127.76481 158 ft 7 kts 200°
2026-04-21 22:32 26.35912 127.76459 158 ft 9 kts 199°
2026-04-21 22:32 26.35859 127.76455 158 ft 7 kts 161°
2026-04-21 22:33 26.35823 127.76478 158 ft 8 kts 144°
2026-04-21 22:33 26.35763 127.76529 158 ft 15 kts 140°
2026-04-21 22:33 26.35704 127.76584 158 ft 18 kts 142°
2026-04-21 22:33 26.35607 127.76656 158 ft 15 kts 150°
2026-04-21 22:34 26.35524 127.76709 158 ft 12 kts 149°
2026-04-21 22:34 26.35458 127.76752 158 ft 12 kts 149°
2026-04-21 22:34 26.35363 127.76812 158 ft 19 kts 150°
2026-04-21 22:34 26.35238 127.76875 158 ft 19 kts 158°
2026-04-21 22:35 26.35128 127.76924 158 ft 15 kts 159°
2026-04-21 22:35 26.35063 127.76957 158 ft 4 kts 131°
2026-04-21 22:35 26.35062 127.76970 158 ft 2 kts 90°
2026-04-21 22:35 26.35035 127.76993 158 ft 9 kts 162°
2026-04-21 22:36 26.34937 127.77112 158 ft 10 kts 61°
2026-04-21 22:36 26.34996 127.77186 158 ft 15 kts 43°
2026-04-21 22:36 26.35055 127.77241 158 ft 6 kts 27°
2026-04-21 22:37 26.35089 127.77230 158 ft 6 kts 332°
2026-04-21 22:37 26.35123 127.77231 158 ft 4 kts 27°
2026-04-21 22:37 26.35154 127.77257 158 ft 6 kts 38°
2026-04-21 22:37 26.35167 127.77269 158 ft 0 kts 41°